GFSWCAN_700_spd_093.txt.gz
Wind_Speed
30 28 27 28 27 28 29 30 30 28 27 26 26 27 30 31 33 38 32 36 38 34 26 22 25 22 23 22 19 18 15 20 19 16 12 14 12 11 13 6 17 21 16 14 18 9 12 6 5 4 6 10 14 16
28 27 28 29 29 28 28 28 27 26 26 25 25 27 27 30 34 37 36 32 33 39 21 21 25 25 21 26 24 24 13 8 13 10 13 10 11 10 15 15 15 14 17 16 14 15 12 8 10 11 15 15 16 19
28 26 23 21 22 22 23 23 25 27 27 25 24 24 24 26 25 32 41 37 33 34 31 32 20 21 27 24 27 22 21 15 18 16 14 11 11 10 14 20 19 16 14 13 12 12 14 16 13 15 17 15 18 22
19 19 22 23 24 24 26 27 26 27 29 27 26 24 24 26 23 24 35 40 40 39 38 30 12 23 21 28 27 24 21 24 18 19 19 21 14 7 10 16 13 15 17 13 16 15 14 13 11 10 15 17 19 22
18 19 21 21 21 23 24 24 25 28 30 31 27 25 23 24 24 23 28 35 36 40 19 35 30 19 17 25 29 25 26 24 19 26 20 23 19 17 16 14 13 16 11 12 12 11 11 13 15 17 16 18 22 20
16 20 21 22 21 23 23 25 24 24 26 31 29 26 25 25 25 25 25 30 36 31 32 19 9 12 21 31 31 28 20 19 21 24 26 20 22 18 10 10 7 9 8 11 12 12 15 17 15 13 16 19 21 20
9 14 17 18 20 21 23 23 25 24 24 25 27 26 27 27 30 30 24 29 29 30 29 25 21 23 25 18 25 27 21 21 20 20 31 25 14 12 18 16 11 10 9 10 11 15 18 16 17 17 20 27 20 19
7 13 15 14 16 18 19 20 23 24 26 24 24 26 26 25 26 29 18 18 23 29 29 20 14 12 5 20 19 23 22 24 28 22 23 25 25 22 17 17 16 17 16 17 16 20 19 16 17 14 20 20 21 22
12 11 9 8 9 12 19 24 24 24 22 29 24 28 26 28 27 30 14 18 20 26 23 18 20 10 2 8 16 16 17 16 20 24 27 14 15 14 12 10 14 21 24 25 24 22 19 20 23 25 24 27 28 28
6 6 8 10 11 14 19 30 30 28 23 34 33 33 30 30 25 28 23 21 24 30 26 12 17 10 6 9 11 14 14 14 8 23 20 28 26 20 20 26 27 27 28 27 25 24 26 27 30 28 28 30 32 34
14 12 10 9 13 17 21 32 34 31 35 41 40 29 26 27 31 19 13 18 14 10 16 29 21 17 12 12 12 8 5 8 7 13 12 8 12 22 28 28 29 31 32 30 32 33 36 33 32 30 29 31 28 30
16 16 15 8 10 24 31 38 38 35 40 45 35 34 30 28 11 7 14 11 9 12 9 20 29 23 20 15 6 4 7 6 6 11 10 7 15 18 20 23 26 28 27 27 27 27 28 29 30 32 33 32 30 27
19 20 20 22 26 36 41 40 36 40 39 36 36 28 20 17 9 10 13 14 10 10 17 15 20 28 29 24 12 7 6 8 3 8 5 9 16 18 19 21 21 21 22 23 23 23 25 27 31 32 31 29 29 27
21 24 25 29 32 34 36 36 33 39 40 31 21 12 10 9 11 10 17 18 21 15 9 13 14 13 14 16 11 8 9 6 7 6 7 13 13 16 17 18 19 22 23 23 23 23 23 26 30 30 28 27 27 26
22 25 27 30 28 27 28 29 36 41 28 16 11 10 6 5 12 13 17 18 17 15 13 13 17 12 18 7 3 5 5 5 6 7 15 11 14 16 17 18 19 20 20 21 23 23 28 29 28 27 25 22 21 20
20 24 25 28 23 23 25 28 29 19 10 10 7 11 10 14 20 21 20 21 14 12 16 21 12 7 6 7 6 6 2 2 8 11 11 14 17 18 19 19 21 24 26 27 28 28 25 22 23 22 22 21 20 18
21 21 22 23 26 24 26 22 19 12 3 5 5 10 16 17 19 20 22 20 15 20 27 10 9 9 7 7 8 7 9 13 12 13 14 16 19 22 24 25 26 27 27 27 25 22 19 18 20 19 19 18 18 17
18 19 18 27 20 21 16 16 10 5 3 5 13 15 14 13 16 18 20 19 21 27 25 6 6 9 7 5 6 11 12 11 13 14 17 19 20 22 23 22 22 20 19 17 15 13 12 13 12 10 10 9 10 11
10 10 11 12 13 13 13 12 9 9 16 17 17 15 15 14 14 14 14 20 22 22 21 18 6 8 8 7 7 8 10 13 15 17 17 17 17 17 18 17 15 13 11 10 8 6 5 6 7 9 11 14 16 18
4 5 6 7 10 11 8 9 14 12 15 16 14 13 12 12 12 12 12 19 16 17 15 9 9 8 7 8 8 8 10 11 11 12 13 13 13 13 11 9 7 5 3 4 6 10 12 14 17 17 18 18 18 18
3 2 2 3 6 6 12 11 11 17 15 13 13 12 12 12 13 14 15 17 17 14 9 8 9 8 7 5 5 6 6 7 10 10 10 11 10 8 5 2 2 5 8 11 13 16 17 18 19 19 18 16 15 12
3 4 4 5 7 10 8 10 12 12 14 14 13 13 12 10 10 10 11 12 10 9 10 9 8 6 5 4 4 5 6 7 8 7 6 5 3 1 3 5 8 10 12 13 15 15 15 15 15 14 13 11 9 9
10 10 7 8 7 6 15 18 15 12 8 10 9 6 6 6 6 6 7 10 13 10 9 8 6 4 2 2 3 4 5 6 5 4 3 3 5 6 8 9 10 11 10 11 11 9 8 6 6 7 8 9 10 9
8 4 4 4 5 9 13 10 11 12 11 9 7 9 9 10 8 11 14 14 11 9 6 4 2 1 2 4 4 4 4 4 3 3 4 6 7 7 8 8 8 8 8 7 6 6 5 6 7 10 11 11 10 8
5 5 7 9 10 12 11 12 12 13 16 16 13 11 8 9 10 10 10 9 7 5 3 1 1 2 3 3 4 4 4 4 4 4 5 7 8 7 7 7 7 7 7 7 8 8 9 10 11 11 10 8 7 7
4 5 7 12 18 16 16 20 19 19 16 12 10 10 9 7 6 6 7 6 5 5 4 3 3 2 2 1 1 1 1 1 3 5 5 5 6 7 7 7 8 8 8 7 7 9 11 12 11 9 8 7 6 5
11 11 15 18 21 21 21 20 17 15 14 10 10 7 5 4 4 4 4 4 4 3 3 3 2 2 3 3 2 2 2 1 1 1 2 3 4 6 6 7 7 7 7 7 7 7 7 8 8 7 6 5 4 6
22 22 22 21 22 21 23 23 22 18 15 12 10 6 4 2 3 2 2 2 2 2 2 2 2 2 2 3 3 2 2 1 1 2 2 3 4 4 5 6 6 7 7 8 9 9 9 7 5 4 5 7 8 9
25 24 23 23 24 24 24 23 21 18 16 14 13 12 10 8 6 4 2 1 1 1 2 3 3 3 3 3 3 3 3 3 3 3 4 4 4 4 5 5 6 7 7 6 6 4 4 5 6 7 8 9 9 10
25 24 26 25 24 25 23 22 20 19 18 18 16 16 13 10 7 5 3 2 2 2 3 4 4 4 3 3 4 4 4 4 4 4 4 4 4 4 4 4 4 4 5 5 6 7 7 8 8 9 9 10 10 10
27 27 24 24 26 24 22 21 19 18 18 17 17 15 13 11 9 7 5 5 4 4 4 4 5 5 5 5 5 5 4 4 4 4 4 5 5 6 6 7 7 7 8 8 8 9 9 9 9 10 10 11 11 11
26 25 23 24 25 22 19 19 17 15 14 14 13 13 13 12 10 9 8 7 6 5 5 5 5 5 5 5 5 5 5 5 5 5 6 6 7 7 8 8 8 8 9 9 9 9 10 10 10 11 11 11 12 12
26 24 22 23 23 21 17 16 14 12 10 10 11 11 13 12 11 10 8 7 6 6 5 4 4 4 4 4 3 3 4 5 5 6 7 7 7 7 8 8 8 8 9 9 9 9 10 10 10 11 11 11 12 13

GFSWCAN_700_spd_096.txt.gz
Wind_Speed
29 28 28 28 29 27 25 26 26 25 25 25 26 27 27 28 29 33 31 30 30 30 28 18 20 20 15 16 14 14 15 19 16 17 9 12 11 11 8 6 22 25 20 19 18 11 13 9 4 1 2 8 8 10
29 28 29 29 27 26 26 27 27 28 28 28 27 27 28 28 30 32 32 29 30 33 21 17 25 26 27 22 19 22 24 14 15 12 13 8 11 9 9 5 11 14 21 17 16 14 9 8 5 6 9 10 13 12
29 28 28 25 27 28 26 25 24 24 26 26 26 25 26 25 29 34 32 28 29 32 29 31 19 14 23 32 29 23 22 15 4 13 14 9 10 8 11 15 11 12 11 18 16 16 8 7 11 8 11 12 12 12
28 26 26 24 22 21 20 20 21 21 21 23 26 26 23 24 24 27 34 35 30 32 33 26 15 15 14 24 30 30 28 27 8 11 10 13 17 16 5 9 14 9 11 16 15 10 11 7 10 9 6 8 11 18
24 21 20 21 22 21 21 21 21 24 24 24 26 28 18 21 23 24 24 29 32 35 12 24 25 22 12 19 24 24 23 20 15 18 18 18 17 14 16 17 19 10 12 9 7 7 6 6 7 9 9 10 19 25
18 17 18 21 23 24 24 24 23 23 23 27 28 29 23 21 22 24 21 25 27 28 39 33 15 10 22 22 20 24 22 21 20 20 21 21 20 17 11 10 8 11 5 8 5 4 6 8 8 8 12 11 18 18
20 20 16 18 21 22 23 21 22 23 23 25 29 29 24 22 25 27 22 24 20 27 32 28 28 24 16 22 26 24 24 25 23 21 23 21 17 13 19 21 13 11 6 7 6 9 6 10 15 14 13 20 25 20
14 15 15 12 17 20 21 22 22 22 23 24 28 28 23 22 23 25 25 15 15 25 31 20 14 13 16 16 26 25 29 27 25 23 22 19 19 21 20 13 10 12 12 9 15 12 17 18 13 11 8 19 23 22
14 18 18 13 12 19 19 19 20 24 26 27 25 24 22 26 27 25 15 17 15 23 30 19 20 11 7 10 22 23 29 27 18 21 22 17 16 14 14 12 14 18 18 21 18 20 22 25 24 22 22 26 28 28
8 12 14 16 15 15 15 20 23 28 29 31 31 30 28 28 25 21 17 18 18 23 25 28 16 17 11 5 14 16 14 16 9 16 19 24 29 22 21 21 21 22 26 27 26 25 26 27 23 25 27 30 29 29
11 11 14 19 21 20 20 27 30 31 40 42 39 27 25 26 28 25 9 18 14 12 23 26 16 12 9 6 12 13 6 8 8 12 14 11 15 25 32 34 33 33 33 29 28 30 30 28 29 29 29 27 27 28
6 5 9 17 19 25 28 35 37 37 40 45 37 31 24 24 14 8 14 13 8 11 10 20 27 25 14 11 8 7 2 4 6 9 10 7 12 18 21 23 27 30 29 29 28 26 23 22 23 23 23 24 26 28
13 12 9 18 28 31 37 37 32 35 45 35 33 27 14 17 9 8 14 11 10 12 17 13 18 20 18 17 7 2 3 6 5 7 6 9 14 17 19 21 23 24 24 23 22 22 22 22 23 23 22 25 28 28
23 22 25 29 35 37 36 34 33 40 38 32 22 14 13 6 9 9 17 19 20 12 8 14 11 12 19 17 11 4 6 8 5 5 7 11 11 14 16 18 19 20 21 22 25 25 23 23 23 25 29 32 31 30
26 24 29 31 29 33 31 34 35 41 30 16 11 12 9 7 11 13 13 15 17 17 12 10 10 9 11 7 9 8 7 5 6 7 13 12 12 14 15 17 18 19 20 21 21 22 24 25 27 30 32 30 27 22
18 26 28 26 26 26 28 32 35 24 13 15 6 11 12 13 15 17 16 17 15 15 14 14 9 5 8 6 6 6 2 2 6 10 8 10 11 14 16 18 21 23 25 28 30 30 29 29 30 30 28 25 22 20
20 21 28 26 26 25 22 31 23 13 9 6 10 12 11 10 16 22 20 18 16 16 19 10 9 7 5 5 7 6 5 10 9 10 12 14 16 18 21 23 25 26 27 28 28 28 26 25 24 22 21 20 19 19
18 21 24 19 18 22 22 20 14 5 6 8 9 11 9 8 13 17 17 19 19 19 24 14 8 9 8 7 6 11 12 11 11 13 14 17 19 20 22 21 20 20 20 20 19 18 17 16 16 15 14 13 12 11
16 17 17 18 15 19 13 13 12 3 3 6 7 11 11 11 12 13 16 17 18 19 25 17 4 8 10 11 9 8 10 10 11 13 14 16 17 16 17 18 17 16 16 15 13 11 10 9 8 6 4 5 6 9
14 11 12 14 12 11 8 4 9 6 12 12 11 11 11 11 11 13 14 16 18 16 19 19 14 7 6 8 9 8 6 6 7 8 16 15 16 15 15 14 13 13 12 9 5 3 1 3 6 8 11 13 13 13
6 5 6 9 9 9 5 9 7 12 13 10 11 9 8 8 9 10 11 13 15 17 10 8 8 7 7 6 5 5 7 8 8 9 12 13 13 11 9 7 6 5 4 1 4 6 9 11 12 14 14 13 12 10
4 6 8 10 12 10 8 9 12 13 12 12 9 7 8 7 7 7 8 10 10 8 7 7 6 5 4 5 5 6 7 7 8 8 8 9 8 6 4 2 1 2 4 6 8 10 10 11 10 10 10 8 6 5
5 9 9 8 5 5 13 17 15 11 7 10 8 6 6 6 5 6 5 6 9 7 6 5 4 3 3 3 4 5 6 6 6 6 5 4 4 3 2 1 3 5 6 7 7 7 6 5 3 3 3 4 5 7
9 5 4 3 4 8 14 11 11 11 11 8 5 6 5 6 5 8 11 11 8 7 4 2 1 3 4 4 5 5 5 4 4 4 4 3 3 3 3 3 3 3 4 4 3 3 3 4 6 7 8 9 10 10
4 3 4 6 8 11 10 9 10 11 12 12 10 9 7 8 9 9 8 7 5 3 1 1 2 3 4 4 4 4 4 4 3 4 4 5 5 6 6 6 6 5 5 5 5 6 7 8 9 10 11 12 10 9
1 3 3 8 12 10 11 15 16 19 16 11 9 9 8 7 5 4 5 4 3 2 2 2 3 4 4 4 5 5 4 4 3 4 4 5 5 6 7 7 7 8 8 8 8 8 8 8 9 10 10 10 9 9
6 9 13 14 19 20 21 20 16 14 13 9 9 6 5 4 4 4 3 2 1 1 2 2 3 4 4 4 4 4 4 4 3 3 3 4 5 6 7 7 8 9 9 9 9 9 8 8 7 8 8 7 6 5
17 20 21 20 21 20 21 20 19 15 12 10 8 6 4 3 3 3 3 2 3 3 3 4 4 4 5 5 5 5 5 5 4 4 4 5 5 5 6 6 7 7 7 7 8 8 8 8 8 8 6 5 5 6
22 22 20 21 21 21 19 20 19 16 13 12 11 12 10 9 6 4 3 3 4 5 5 6 6 6 6 6 6 6 6 6 6 6 6 5 5 6 6 6 6 6 6 7 7 7 6 5 5 5 6 7 8 9
23 23 22 22 21 21 19 18 17 16 16 16 14 14 13 11 8 6 4 5 5 6 7 7 7 7 7 7 6 6 6 6 6 6 6 6 5 5 5 5 5 5 5 6 6 6 7 7 8 8 9 9 9 10
24 24 22 21 23 23 21 19 17 16 15 14 14 13 12 12 10 8 6 6 6 6 7 7 8 8 8 8 7 7 6 6 6 6 6 6 6 6 6 7 7 7 7 8 8 8 9 9 9 10 10 10 11 11
26 23 21 22 24 22 19 18 15 14 13 12 11 11 11 11 10 11 9 8 7 7 7 7 7 7 7 7 7 7 7 7 7 7 7 7 7 7 7 8 8 8 8 8 9 9 9 10 10 10 11 11 12 12
26 24 22 23 23 21 18 16 14 11 9 8 8 9 10 11 10 11 10 8 8 8 7 7 6 6 6 6 5 5 6 7 7 8 8 8 8 8 8 8 8 8 8 8 9 9 9 10 10 11 11 11 11 12

GFSWCAN_700_spd_099.txt.gz
Wind_Speed
36 31 28 30 29 27 27 25 25 22 21 21 22 23 25 25 24 26 24 27 27 27 24 20 16 23 18 8 13 14 13 7 9 11 8 9 10 10 10 15 16 27 20 21 20 9 9 2 3 6 3 4 5 8
35 30 30 30 28 28 26 25 23 22 22 24 25 24 25 25 24 24 26 26 25 28 23 14 18 18 21 21 17 17 14 12 8 5 8 8 10 11 14 10 15 12 29 12 15 21 6 7 2 8 1 3 11 13
35 30 30 29 28 27 25 23 22 23 24 25 25 25 25 26 26 26 25 23 25 29 28 27 18 10 18 20 24 22 17 13 14 19 9 9 7 11 11 4 8 11 25 12 14 16 13 13 12 4 11 4 11 13
29 30 30 27 27 25 23 24 23 22 23 24 24 25 24 25 26 26 26 25 27 27 31 22 14 16 14 21 23 28 30 26 19 18 16 7 9 10 16 20 8 7 4 9 17 16 18 10 19 6 6 13 12 15
29 29 27 26 25 24 22 20 20 20 19 18 19 21 24 25 23 22 25 28 29 28 13 11 12 18 18 16 15 19 31 28 24 18 15 12 11 12 12 13 11 6 7 10 3 8 4 5 16 5 8 11 11 17
28 26 25 25 21 20 19 19 20 20 18 18 17 21 25 24 21 22 19 22 23 25 34 32 23 9 5 15 17 10 16 19 20 18 18 16 11 10 10 9 7 10 9 3 4 3 1 10 3 8 10 12 13 15
25 25 24 22 20 20 21 22 22 22 20 18 21 24 28 20 19 22 17 19 15 18 31 30 27 20 19 20 16 17 14 15 21 17 21 19 14 13 17 20 14 15 15 4 2 2 4 6 8 8 13 17 17 11
23 24 24 23 21 21 23 24 21 22 24 23 22 25 28 22 19 22 22 13 12 14 26 20 13 15 11 10 16 20 20 19 21 21 21 20 15 15 13 13 8 12 7 14 7 9 10 9 11 14 18 20 21 23
21 20 20 21 20 15 17 21 24 21 20 26 23 25 24 24 23 20 22 20 12 15 19 21 25 15 12 9 17 23 24 21 21 24 21 17 16 10 12 17 18 16 15 13 14 16 18 21 20 19 19 21 24 29
14 18 20 22 23 19 17 20 19 23 25 26 31 32 27 24 20 19 11 19 16 22 21 26 15 20 20 19 6 22 20 20 12 22 19 18 18 22 21 22 23 21 18 17 22 24 25 24 23 25 25 23 26 27
16 17 18 19 21 24 20 21 25 29 35 38 38 30 25 22 22 20 10 16 13 12 17 24 20 22 19 12 10 14 11 11 10 14 15 10 20 29 34 33 31 32 32 31 31 34 33 27 24 22 21 22 23 23
15 18 21 23 25 26 23 30 33 38 42 41 38 29 24 24 11 10 8 12 8 12 6 10 16 15 11 7 9 14 6 9 5 11 16 9 21 27 29 27 20 20 26 27 28 27 26 23 20 19 18 18 19 20
8 16 22 23 28 30 27 36 35 36 39 37 27 24 15 12 9 8 11 11 10 11 16 12 12 19 20 16 3 6 3 3 4 5 11 10 14 17 19 23 23 21 21 22 22 20 20 19 21 22 22 22 21 22
12 12 26 30 34 35 36 33 37 43 40 36 19 16 10 8 9 9 19 21 18 11 10 13 10 11 16 12 4 2 4 5 5 3 5 6 8 10 12 13 14 16 17 18 18 20 20 21 20 20 20 21 24 27
26 30 35 35 37 35 36 35 42 44 40 25 10 10 11 10 11 11 12 12 16 13 7 12 10 10 6 6 5 6 5 5 7 8 12 6 10 11 12 13 15 16 17 18 20 22 24 25 26 28 28 28 28 28
27 34 37 36 36 35 32 37 41 43 27 15 8 11 14 14 14 17 14 14 14 15 16 13 8 5 8 5 7 6 3 3 8 5 5 8 9 11 13 16 17 20 23 26 28 29 30 31 32 32 32 30 29 26
31 37 33 31 35 34 28 40 27 19 11 8 15 16 18 17 17 19 20 18 15 17 18 10 9 6 6 6 5 6 7 9 6 7 8 10 12 14 17 20 22 25 24 24 25 25 25 25 25 24 24 23 21 19
26 30 35 29 23 26 35 20 17 9 11 10 15 15 11 8 13 16 17 17 19 24 22 17 9 11 7 8 9 12 14 13 10 9 10 12 14 19 22 23 22 21 20 19 18 17 17 17 16 15 13 13 12 10
21 20 18 19 29 25 20 16 8 6 9 8 8 10 9 9 9 10 13 16 21 21 22 17 5 11 12 11 10 10 13 12 11 11 10 13 15 15 14 15 16 15 14 14 13 12 11 10 8 6 4 2 3 5
15 13 12 13 16 16 12 8 13 4 6 6 7 8 7 7 7 9 10 13 16 15 15 12 13 7 6 9 12 10 10 9 11 16 12 13 13 13 13 12 11 10 10 9 8 7 6 4 4 6 8 10 12 11
13 11 17 12 12 12 7 9 10 8 12 12 11 9 7 7 7 8 10 11 13 14 11 10 12 13 12 10 10 9 9 9 10 13 13 13 13 12 11 9 8 7 6 5 5 5 5 6 8 11 12 12 11 10
8 9 11 11 10 7 5 8 10 12 11 12 9 6 7 6 6 7 7 10 10 9 8 9 7 6 5 6 6 7 7 7 8 8 9 10 8 7 6 6 5 4 4 4 5 6 7 8 8 8 8 7 5 3
8 11 12 12 7 6 14 18 14 10 7 11 10 8 7 5 4 6 5 6 9 7 5 3 2 2 2 3 4 5 6 7 7 6 6 5 4 3 2 2 2 2 3 4 5 5 5 4 3 2 3 3 4 4
11 11 7 4 4 8 16 11 11 11 11 10 6 7 6 7 6 8 11 11 9 7 4 1 1 1 3 5 5 6 6 6 6 5 5 5 4 3 2 2 2 2 2 2 2 1 2 4 5 6 6 7 8 8
6 5 4 6 8 11 10 11 10 10 11 11 10 9 7 7 8 9 9 8 6 4 1 1 2 3 3 4 4 4 5 5 6 5 5 5 5 5 5 5 5 5 5 5 5 5 6 6 6 6 6 7 8 8
1 3 3 8 13 10 11 12 13 18 16 12 9 9 9 7 6 6 7 6 5 3 2 2 2 3 4 4 4 4 4 4 4 4 4 4 4 4 5 6 6 7 7 8 8 8 9 9 9 8 7 7 7 7
4 5 11 12 15 18 20 21 17 14 13 9 10 7 5 4 4 5 4 4 3 2 3 4 5 5 5 6 6 6 6 6 5 4 4 4 5 5 6 6 7 8 8 8 8 8 7 7 7 6 6 6 7 6
15 20 23 23 23 20 21 20 19 15 12 10 8 6 5 4 5 6 6 5 4 5 5 5 6 6 6 6 6 7 7 7 7 7 6 6 6 6 6 6 7 7 7 7 6 6 6 6 7 7 7 7 6 5
24 23 21 22 22 21 18 19 19 18 15 14 13 14 13 11 9 7 7 6 6 6 7 7 7 7 7 7 7 7 7 7 7 7 6 6 6 6 7 6 6 6 6 6 6 6 6 5 5 5 5 5 6 7
25 24 23 22 20 20 18 17 17 17 16 16 13 14 14 13 12 10 8 7 7 7 8 8 9 9 8 7 8 7 7 7 7 7 6 6 6 6 6 6 6 5 6 6 6 6 7 6 7 7 7 8 8 9
25 24 22 19 21 22 21 19 18 17 16 13 14 13 12 13 12 11 9 8 8 7 8 9 9 9 9 8 6 7 7 7 7 7 7 7 7 7 7 7 7 7 7 7 8 9 8 8 9 9 9 9 9 9
25 23 19 18 22 22 21 19 16 14 13 12 11 11 10 10 10 11 11 9 8 8 8 8 8 8 8 8 7 7 6 6 6 6 7 7 8 8 8 7 7 7 7 7 7 8 8 8 8 8 8 10 10 10
26 24 20 21 23 21 19 18 15 13 10 9 8 7 8 9 9 10 11 10 8 8 8 8 7 7 7 6 7 7 7 8 8 8 7 7 7 7 7 7 7 7 7 7 7 7 8 8 8 9 9 9 10 10

GFSWCAN_700_spd_102.txt.gz
Wind_Speed
33 33 34 29 26 25 25 23 23 23 22 22 21 20 23 21 21 23 18 21 23 26 25 21 14 14 15 14 12 13 8 5 5 6 5 6 9 9 11 13 13 18 20 24 20 11 11 1 5 3 3 2 0 4
34 33 32 30 26 25 24 23 23 23 22 22 21 20 23 26 25 24 22 21 21 24 22 14 18 18 16 15 18 16 11 11 9 9 10 10 12 10 14 10 14 12 21 24 18 16 8 5 5 11 12 6 5 5
34 34 33 29 26 26 25 23 23 22 22 21 21 22 23 24 25 25 23 19 19 23 26 24 18 15 15 13 17 20 18 16 14 11 18 20 5 7 9 14 26 5 21 11 15 15 13 8 9 7 5 3 6 8
33 34 33 31 28 27 25 24 23 22 22 22 22 22 23 23 24 24 23 20 21 23 26 19 13 11 13 15 15 16 15 21 23 25 22 14 18 9 13 18 19 10 19 20 15 11 11 16 11 10 9 8 7 10
31 32 30 27 28 26 25 24 23 22 22 21 23 23 24 24 23 23 23 23 22 23 14 2 1 9 12 13 9 12 16 19 19 21 21 20 17 12 10 14 12 12 15 7 6 12 15 17 19 8 13 9 9 10
32 31 28 27 28 26 25 23 22 21 21 19 19 19 20 21 21 19 20 21 23 23 25 30 18 10 8 10 15 16 9 14 17 18 23 26 16 12 9 8 13 19 19 10 9 7 10 14 12 14 8 7 10 12
31 29 29 29 27 25 24 22 22 21 20 20 19 17 19 23 25 25 18 18 15 18 28 30 30 14 14 19 19 16 13 15 16 19 21 22 13 12 16 17 12 12 14 10 5 8 9 13 8 4 3 7 10 10
29 29 28 27 26 25 25 23 23 21 20 21 18 18 20 23 23 23 17 9 7 8 26 14 9 12 7 8 10 14 16 17 18 18 22 21 15 14 7 8 9 10 11 13 14 9 10 8 7 10 14 16 16 16
27 27 28 27 27 27 25 23 20 21 25 25 21 21 22 26 22 17 18 8 10 11 11 15 19 15 11 12 6 14 19 21 18 20 20 15 13 8 11 12 12 10 11 13 11 9 10 13 14 16 18 20 21 21
24 25 25 28 26 24 25 23 20 21 23 29 29 31 29 28 21 16 16 18 15 16 18 21 18 16 17 20 18 17 20 20 11 20 16 22 22 22 22 22 24 21 18 17 17 14 18 20 22 26 23 22 24 23
22 24 25 26 27 26 21 18 22 25 30 39 38 33 27 23 21 19 9 16 13 10 16 21 19 17 16 15 16 11 9 11 8 12 12 8 14 24 26 27 26 26 27 26 25 26 27 26 25 22 21 20 20 20
22 22 24 24 25 26 23 27 30 34 37 40 38 29 26 21 10 11 10 10 8 11 6 7 9 15 15 12 8 13 7 9 6 10 11 8 20 23 24 26 27 26 23 17 17 18 19 21 21 19 18 16 17 17
22 25 26 25 23 28 28 31 34 31 38 38 32 25 18 14 8 9 10 8 11 9 14 12 7 13 14 9 6 5 6 6 2 4 7 10 17 21 20 19 17 18 21 21 20 20 18 18 18 18 19 20 20 19
22 27 28 29 30 33 33 33 32 38 40 35 21 18 9 9 10 10 16 16 16 11 6 10 8 10 15 7 6 2 2 3 3 4 5 4 7 9 11 13 14 14 14 16 17 17 16 17 18 18 19 20 21 21
27 31 31 32 34 32 34 40 34 42 40 16 11 9 12 11 17 15 10 12 14 11 7 13 11 10 7 6 4 5 4 3 5 7 6 7 9 10 10 12 13 14 15 16 17 20 22 24 25 26 26 27 27 28
36 37 36 38 33 37 36 36 38 40 26 14 7 11 14 13 16 17 15 7 12 16 10 13 8 6 8 5 6 6 4 6 7 6 6 7 8 8 9 11 14 17 20 23 25 28 28 28 27 27 27 26 26 25
42 44 36 36 38 35 38 37 41 27 15 7 12 14 19 14 17 18 19 18 16 17 17 10 7 6 5 5 7 7 7 7 6 5 6 9 13 14 14 16 19 24 26 26 26 25 24 24 24 23 22 22 21 20
40 36 35 33 30 31 35 38 32 11 10 10 15 16 15 13 16 19 21 18 17 19 21 15 8 10 6 6 11 14 15 14 12 12 13 15 15 16 17 18 19 19 19 19 19 20 19 18 18 17 16 15 14 12
31 29 27 27 40 27 28 25 17 11 11 9 11 13 11 10 11 12 14 15 15 16 21 18 9 11 15 15 12 13 15 14 12 13 12 12 13 15 17 18 18 17 18 16 15 14 13 12 11 9 7 6 5 3
25 23 21 23 27 15 8 12 12 12 13 11 8 9 8 7 8 9 10 13 17 19 18 16 13 11 7 10 11 11 12 15 16 14 13 13 15 15 15 15 15 14 13 11 10 8 6 4 2 2 3 4 7 8
17 19 24 25 22 14 7 12 11 6 10 9 9 8 7 8 8 8 8 10 13 17 17 14 12 12 12 11 11 11 11 13 15 14 14 13 14 13 11 11 9 7 5 3 3 3 3 4 5 6 8 9 9 9
15 15 16 11 13 11 5 8 9 11 11 13 11 9 9 8 8 8 9 11 12 11 10 9 8 7 6 6 6 8 9 10 11 13 13 12 12 10 8 6 4 3 1 3 4 6 6 7 7 7 6 5 4 3
13 15 14 15 9 6 13 16 15 12 9 13 11 9 8 7 6 7 5 6 9 7 4 3 1 1 3 4 5 7 8 9 9 9 10 9 8 7 6 4 3 1 2 2 3 4 4 3 2 2 3 3 4 4
14 13 10 5 6 7 19 12 13 12 12 12 8 7 7 6 6 5 7 9 7 6 5 3 3 2 3 4 5 6 7 8 8 8 8 7 7 7 6 5 4 4 4 4 3 3 3 3 3 3 3 3 3 4
8 7 5 5 8 13 11 13 13 9 15 12 9 9 8 6 5 7 8 9 6 5 3 3 2 2 4 4 5 6 7 7 7 7 7 7 6 6 7 7 7 7 7 7 7 7 7 7 7 7 7 7 6 6
3 4 5 8 13 12 11 12 11 17 17 12 10 12 13 8 4 6 7 5 5 4 3 1 2 2 3 4 5 5 6 7 7 7 6 6 6 7 7 7 7 8 8 9 9 10 10 10 9 9 8 7 6 6
3 4 9 13 13 15 17 20 19 15 12 10 13 10 5 4 4 5 5 5 4 3 2 2 2 3 4 5 5 5 5 5 5 5 5 5 6 6 7 7 7 8 8 8 9 9 8 8 7 6 6 5 5 6
10 16 17 20 21 22 22 20 17 14 11 10 8 6 4 4 8 9 8 7 6 5 4 4 5 5 5 6 6 7 7 6 6 6 6 6 6 6 6 7 7 7 7 7 7 7 7 7 7 7 7 7 7 7
25 26 24 25 23 22 17 15 18 18 17 16 16 16 16 14 12 10 9 7 6 6 6 6 6 6 6 6 6 6 6 6 6 6 7 7 6 6 6 6 7 6 6 6 6 5 5 5 5 4 4 5 5 5
26 25 25 23 21 21 19 18 19 19 19 17 13 15 15 14 13 12 10 8 7 7 7 7 6 6 7 7 6 7 7 7 7 7 7 8 8 8 8 7 7 8 7 7 7 7 7 7 7 7 7 8 8 8
26 25 23 21 22 24 22 20 19 18 16 14 15 14 13 13 12 12 10 8 8 8 8 8 8 7 6 7 8 7 6 7 7 7 7 8 8 8 8 9 9 9 9 10 9 9 8 8 8 9 9 9 10 10
26 25 22 17 23 24 23 21 17 16 15 13 11 11 10 10 9 9 9 8 7 7 7 8 8 8 7 6 6 6 6 6 7 7 8 8 9 9 9 8 8 8 8 8 8 8 8 8 9 9 10 10 10 10
27 27 20 20 24 24 22 21 18 15 12 10 8 7 7 6 6 7 8 8 8 7 7 7 8 8 7 7 7 7 7 7 7 8 8 8 8 8 8 8 7 7 7 7 7 7 7 7 8 8 8 9 10 10

GFSWCAN_700_spd_108.txt.gz
Wind_Speed
42 42 41 38 34 30 32 31 29 27 26 25 24 24 20 16 18 20 16 18 20 22 17 19 18 13 11 10 12 9 10 5 6 7 8 8 8 9 9 10 9 9 6 4 9 4 9 7 4 4 5 9 13 10
39 41 40 38 36 35 35 31 30 29 26 25 24 25 20 17 17 20 20 17 18 20 13 11 11 15 17 15 15 13 13 10 6 7 9 7 17 8 21 4 9 3 17 17 11 7 2 9 5 9 11 10 11 8
43 41 40 39 40 42 38 32 28 28 27 25 24 26 22 16 18 20 19 17 15 15 18 15 10 12 15 12 11 15 9 11 12 11 12 10 9 15 14 14 16 22 21 7 13 16 15 11 13 7 10 14 14 11
40 40 40 38 37 38 41 34 26 25 27 24 25 25 20 21 23 22 21 18 16 17 22 10 8 11 13 15 16 15 12 14 12 11 12 14 14 11 20 22 16 12 27 21 19 7 11 19 10 9 10 13 16 10
37 44 34 33 33 32 38 32 30 27 25 23 24 22 18 18 21 22 22 19 18 16 15 6 4 7 11 14 15 13 14 13 12 14 13 15 15 13 14 14 13 21 27 15 1 12 5 9 13 11 10 12 10 13
34 42 38 34 35 33 30 32 30 26 22 21 23 21 17 19 20 18 21 19 17 15 17 16 3 6 9 10 11 10 10 10 11 14 13 12 10 9 13 9 12 19 19 19 18 6 15 11 17 19 16 14 14 3
31 41 35 32 35 32 33 30 24 25 23 21 22 20 21 20 21 24 13 9 11 16 16 13 6 3 8 17 11 16 16 13 9 12 19 20 15 16 18 19 16 8 12 16 17 12 8 11 10 19 21 16 5 5
30 35 38 33 27 28 31 33 33 31 23 21 19 20 20 19 18 22 19 12 1 15 17 8 9 8 5 6 15 16 17 19 19 20 21 17 15 13 9 10 10 7 8 14 11 11 9 9 10 11 8 8 3 4
34 32 29 26 25 27 31 30 29 25 21 20 21 20 16 21 24 16 17 21 20 17 10 17 15 9 4 8 11 12 16 13 15 19 21 14 14 10 13 10 12 13 12 11 12 13 11 11 9 6 5 8 8 10
30 31 30 27 26 29 28 28 25 23 23 23 22 22 22 22 17 15 16 18 20 20 23 23 19 12 10 9 11 15 12 16 8 14 14 21 24 28 25 24 22 22 20 19 15 12 13 18 16 15 16 15 14 15
29 27 29 31 30 31 30 27 26 27 30 28 23 20 17 16 17 16 10 12 12 11 16 26 24 19 15 16 16 8 4 7 6 10 10 6 10 17 18 20 19 20 18 18 15 13 11 9 9 11 13 16 16 16
28 29 31 31 28 28 29 31 33 32 27 21 20 18 20 15 9 10 9 9 8 11 13 11 10 13 19 19 11 8 9 6 5 7 8 5 15 17 17 18 19 17 16 14 11 8 10 10 10 10 9 11 14 15
29 30 30 29 29 31 33 35 37 30 26 25 22 21 14 13 11 9 10 8 8 10 11 12 12 9 11 12 9 6 7 7 4 7 6 9 11 11 13 13 15 16 14 11 10 9 9 9 9 9 11 12 12 14
30 32 31 31 33 34 38 35 32 31 28 24 16 16 11 10 8 10 18 17 13 12 9 5 7 3 7 9 6 4 3 3 5 4 4 6 7 6 6 6 5 5 6 8 10 11 12 13 15 17 19 19 20 21
32 33 33 35 38 36 30 32 36 37 20 19 14 10 12 13 13 11 14 19 19 9 8 8 9 8 7 6 4 4 3 3 4 4 5 6 7 8 9 9 9 9 10 11 12 15 17 20 22 24 25 26 26 26
35 34 32 31 33 36 35 52 47 38 24 19 10 9 14 13 15 17 17 17 22 12 11 12 10 7 6 4 5 5 3 4 3 4 5 6 8 9 10 10 12 14 15 16 18 20 22 23 24 24 23 23 22 22
33 33 32 34 33 34 39 36 37 35 17 13 9 8 13 18 18 16 14 12 16 15 17 10 2 5 4 4 5 6 7 9 8 6 6 6 7 10 12 14 15 15 15 18 20 21 22 23 24 23 21 20 20 19
35 35 34 35 38 35 35 38 32 8 13 15 12 8 13 18 16 14 18 14 14 17 18 17 8 8 5 5 8 9 10 9 9 10 11 13 15 17 16 15 15 16 17 19 21 22 22 21 20 19 18 17 17 16
31 33 34 34 32 30 37 36 19 10 15 14 10 6 9 11 12 12 13 15 15 16 18 19 11 11 16 19 17 15 14 14 13 12 11 12 13 14 14 16 16 16 17 18 19 19 18 17 15 14 12 11 11 10
35 34 32 35 37 33 15 18 12 9 18 15 9 9 10 12 12 13 15 16 17 20 20 20 22 19 12 11 10 11 12 13 13 12 13 13 14 15 16 16 16 17 16 15 14 13 13 11 10 9 7 6 5 5
31 29 29 35 34 19 8 20 11 7 9 12 11 10 12 14 14 14 13 13 14 17 19 19 17 16 15 14 14 14 15 14 13 14 12 12 13 14 15 15 14 14 13 12 10 8 7 5 4 2 2 2 2 2
31 32 31 32 18 14 7 16 16 10 11 12 12 9 8 9 10 10 10 11 13 15 15 14 14 14 13 12 11 10 10 11 11 11 12 12 12 11 11 11 10 9 8 8 7 5 4 3 3 2 2 3 3 3
26 23 24 14 5 5 8 13 13 13 9 10 10 10 7 7 6 6 6 9 12 12 11 10 9 8 7 7 7 7 7 8 9 9 10 10 10 9 9 9 8 8 7 6 6 6 6 6 6 7 7 8 8 7
19 18 16 10 9 8 10 13 13 11 9 9 10 7 6 7 6 6 5 5 5 6 6 5 4 3 3 4 5 6 6 7 8 8 9 9 9 9 9 9 8 8 8 8 8 9 9 10 10 10 10 10 10 10
11 10 5 8 8 9 11 11 12 11 8 12 10 5 5 4 3 2 3 5 4 3 1 1 1 3 4 5 6 7 8 8 9 9 9 9 8 8 8 8 8 9 9 10 11 11 12 12 12 12 12 12 12 12
6 6 6 6 10 9 9 12 12 11 8 11 8 6 9 7 3 3 5 5 4 3 1 0 2 4 5 7 7 8 8 9 9 9 9 9 8 8 8 9 9 10 10 10 11 11 12 12 12 13 13 12 12 11
6 6 8 8 9 9 11 12 11 12 11 5 10 15 6 3 3 5 5 4 4 2 1 1 2 4 5 6 7 8 8 9 9 9 9 9 10 9 10 9 9 10 10 10 10 9 9 9 9 9 9 9 9 8
7 6 8 11 11 12 11 13 14 11 7 11 15 7 5 4 7 8 7 6 5 3 3 3 4 5 6 7 8 8 9 9 9 9 9 9 9 9 9 9 10 10 10 9 9 9 9 9 9 8 8 8 7 7
9 11 13 14 14 14 16 14 9 9 10 13 9 8 11 13 13 11 9 7 6 5 4 4 5 5 6 7 8 8 9 9 9 9 8 8 9 9 10 10 9 9 9 9 9 9 9 8 8 8 8 7 7 7
15 17 19 19 20 15 13 10 10 14 14 14 14 14 14 13 12 11 9 8 6 6 6 6 6 7 8 8 9 9 9 8 8 9 9 9 9 9 10 10 10 10 10 10 10 11 11 10 10 10 10 11 11 11
21 22 22 20 17 15 16 18 19 19 19 18 16 12 11 12 11 10 8 7 6 7 8 9 9 9 9 9 9 9 8 8 8 9 9 10 10 10 11 11 11 10 10 10 10 10 10 10 10 10 10 10 11 11
25 24 22 21 20 21 22 21 20 18 18 17 15 14 12 10 9 7 6 5 6 7 8 10 10 10 10 10 9 9 9 10 10 10 11 11 11 11 11 10 10 10 9 9 9 9 8 8 8 9 9 9 10 10
27 24 22 21 23 25 24 23 21 18 16 15 13 11 10 7 6 4 2 3 5 7 9 10 11 12 11 11 10 10 11 11 11 11 10 10 9 9 9 9 8 8 8 8 7 7 7 7 8 8 9 9 10 10

GFSWCAN_700_spd_111.txt.gz
Wind_Speed
39 41 44 45 37 36 39 37 36 35 29 25 25 25 25 20 18 19 16 16 15 20 15 15 14 13 12 13 11 9 10 6 4 4 4 7 7 8 10 12 9 7 6 2 5 5 8 4 1 1 5 4 8 12
45 42 41 45 49 43 42 37 35 31 29 27 27 26 25 20 18 19 17 17 15 17 12 8 10 9 12 13 16 12 10 10 6 5 6 5 9 7 16 8 11 6 9 13 8 7 8 8 4 3 3 7 9 11
39 46 39 37 40 40 40 36 29 29 26 27 26 26 25 23 17 19 15 17 17 14 11 12 7 13 13 13 14 15 10 7 8 9 9 7 6 10 8 10 20 13 15 15 18 5 18 8 9 9 7 9 10 13
35 45 43 35 37 37 37 31 38 28 24 27 26 23 25 22 19 20 15 13 15 13 17 11 10 11 13 13 13 11 11 13 14 13 14 13 12 9 13 19 21 14 20 18 7 7 6 13 14 7 10 10 17 16
30 44 46 35 36 37 37 35 28 23 25 23 23 23 26 23 20 18 18 18 16 16 13 3 6 11 11 12 11 12 13 12 12 15 17 17 16 12 12 12 11 19 25 24 7 9 7 8 10 9 9 10 15 20
29 42 50 37 33 34 32 32 33 32 24 18 18 21 23 24 22 18 18 17 15 14 16 11 3 7 9 10 10 12 13 13 13 14 14 15 5 9 8 10 11 17 19 18 9 2 6 2 3 10 12 9 7 7
29 43 54 31 38 35 29 31 30 31 26 23 19 22 22 25 22 20 11 9 12 15 12 9 3 6 8 13 16 12 14 14 13 15 17 15 12 17 22 20 15 12 15 16 14 13 10 6 4 9 19 14 10 10
32 47 43 35 30 28 30 26 30 27 23 17 18 24 22 21 19 21 17 10 3 8 13 7 5 4 7 4 6 16 14 18 19 20 22 18 17 15 12 12 6 7 9 14 16 15 16 12 10 4 4 6 5 1
36 35 37 33 29 29 30 30 28 26 22 16 18 26 24 25 21 14 18 18 9 9 5 11 12 8 3 5 7 8 16 21 24 24 23 17 16 10 10 9 8 10 13 16 18 16 15 11 10 10 8 3 1 1
23 34 35 33 29 28 28 29 34 26 22 20 25 27 24 21 14 12 13 14 14 15 23 26 20 14 9 8 6 9 10 12 8 13 11 18 23 24 22 24 25 23 21 20 19 17 14 14 12 10 9 9 10 12
30 31 31 30 28 25 27 30 32 29 27 30 29 23 14 14 15 12 10 11 10 8 16 15 15 22 20 15 11 8 5 6 5 7 8 4 10 17 18 20 19 15 13 12 13 14 13 8 7 7 8 8 11 12
31 32 30 29 25 29 32 33 33 33 31 32 26 18 20 19 10 8 11 9 8 11 11 10 8 9 16 20 21 10 11 6 5 5 7 5 12 13 14 16 16 14 12 12 11 10 9 9 8 8 8 9 9 9
31 31 29 26 26 30 33 32 29 32 34 26 21 27 11 12 9 10 11 8 12 10 8 7 9 10 7 9 8 8 8 7 5 7 5 8 9 8 10 11 12 13 12 10 8 8 7 7 8 8 8 9 10 12
31 29 29 27 25 29 31 29 37 40 29 18 16 13 10 9 10 10 17 12 8 6 3 6 5 6 8 7 7 4 4 3 6 5 5 5 6 7 6 5 6 6 6 6 7 8 8 9 10 12 14 16 17 17
30 29 28 28 30 32 33 41 35 31 24 7 9 9 13 10 11 10 13 16 18 16 8 7 6 7 5 6 4 4 3 2 3 3 4 3 3 5 6 8 7 6 7 7 7 9 10 11 13 14 15 15 15 15
31 31 31 32 35 35 40 35 30 26 25 11 10 7 10 15 11 14 14 16 16 15 11 9 6 5 8 5 5 5 3 3 2 3 4 4 5 5 5 6 9 11 10 10 9 10 12 13 15 16 16 16 16 16
35 35 37 39 37 38 35 30 34 35 14 10 14 9 11 14 16 16 15 14 11 16 15 8 5 5 5 4 4 4 4 6 8 8 7 7 8 10 11 12 13 13 14 14 15 16 17 18 19 19 19 19 19 18
34 35 37 42 42 39 32 31 26 13 10 13 14 10 7 9 14 13 10 11 10 14 16 15 9 8 4 5 6 7 7 8 8 9 10 11 13 13 14 13 13 14 15 16 16 16 17 18 19 18 18 17 17 16
33 36 37 35 37 36 36 36 18 11 11 14 12 6 4 7 10 9 7 12 10 10 15 17 9 10 12 14 12 11 11 11 10 11 13 14 14 15 16 17 17 17 17 17 17 17 17 16 16 15 14 13 12 11
33 35 34 37 50 41 18 21 20 6 14 14 13 6 5 6 8 8 10 11 12 13 15 15 16 15 15 14 12 11 10 11 13 14 15 14 16 17 16 16 16 15 15 14 14 14 13 13 12 11 10 9 8 6
37 36 35 39 41 21 8 20 13 7 12 14 10 7 8 9 9 9 10 12 14 17 19 20 20 18 17 16 15 15 15 15 14 15 15 14 15 15 15 15 14 14 12 11 10 9 8 8 7 7 6 6 5 5
32 28 29 36 22 12 11 18 11 8 9 11 12 10 8 7 8 10 10 11 12 13 13 13 13 13 13 13 13 13 13 12 12 12 12 12 12 13 12 12 11 10 9 8 8 7 6 6 6 6 6 6 7 7
31 33 31 26 13 7 7 14 14 12 5 7 9 9 8 8 7 6 5 5 8 9 9 9 8 8 7 7 7 7 7 8 9 9 10 10 10 11 11 10 10 10 9 8 8 7 7 7 8 8 8 9 9 9
21 23 20 12 7 5 8 11 13 12 11 9 9 9 7 6 5 5 6 6 5 4 3 3 2 2 3 4 5 6 7 7 8 9 9 10 10 10 10 10 9 9 9 9 9 9 9 10 10 10 10 10 10 10
15 12 6 7 6 7 9 9 11 12 10 9 8 5 4 5 4 3 2 4 5 4 3 1 1 2 4 5 6 7 8 8 8 9 9 9 9 9 9 9 10 10 10 10 10 11 11 11 11 11 12 11 11 11
8 7 6 5 10 9 9 9 10 11 8 7 8 5 7 7 4 4 7 6 5 4 3 2 2 4 4 6 7 8 9 9 9 9 9 9 9 9 10 10 10 10 10 10 10 11 11 11 10 10 10 10 9 9
6 4 7 10 8 8 8 9 9 11 8 6 9 11 8 4 4 7 8 6 5 4 3 2 3 4 5 6 7 8 8 9 9 9 9 10 10 10 10 10 10 10 10 10 10 10 9 9 9 9 10 9 9 8
7 6 8 8 9 8 8 11 11 10 8 8 14 9 6 6 8 9 8 7 6 5 4 3 3 4 6 7 8 8 9 9 9 9 9 9 10 9 10 10 10 10 9 9 8 8 8 8 8 8 7 7 7 7
10 10 9 11 12 12 10 11 8 10 9 14 12 7 7 10 11 10 9 8 7 6 4 4 4 5 6 7 8 8 9 9 9 9 9 9 9 9 10 10 10 10 11 11 10 10 10 9 9 8 8 7 7 7
12 10 13 14 14 11 12 11 9 10 14 11 9 11 12 12 12 11 10 9 7 6 5 5 6 7 8 9 9 9 10 10 10 10 10 10 10 11 11 11 11 11 11 11 11 11 11 11 10 10 10 10 10 9
11 14 15 16 16 13 13 11 13 16 15 15 15 11 10 12 12 11 9 8 6 6 6 6 8 9 10 11 10 10 10 10 11 11 11 11 11 12 11 11 10 10 10 10 10 10 9 9 9 9 9 9 9 10
15 18 18 19 15 14 15 18 19 18 19 18 17 16 14 11 10 8 7 5 4 5 6 8 9 10 11 11 10 10 10 11 11 11 11 11 11 10 10 10 10 9 9 8 8 8 8 8 8 8 8 9 9 9
19 21 20 16 17 19 20 21 21 20 18 17 16 15 13 11 9 7 4 3 2 4 7 9 10 11 11 11 10 10 10 10 10 10 10 9 9 9 9 8 8 8 8 8 8 8 8 8 8 8 8 9 9 10

GFSWCAN_700_spd_114.txt.gz
Wind_Speed
39 44 48 46 46 39 36 34 34 32 30 24 22 22 24 24 22 19 16 16 15 13 13 13 13 11 13 13 10 10 5 5 5 5 4 5 6 7 7 10 6 7 7 3 5 4 5 10 4 9 12 11 2 7
43 45 42 47 49 44 34 38 35 36 31 29 26 22 24 25 22 21 18 16 15 15 10 6 7 7 9 13 14 14 10 6 3 3 3 5 9 7 11 7 14 4 9 13 7 8 15 15 9 13 11 10 12 10
32 40 48 43 49 45 47 34 36 33 29 29 28 25 26 25 21 19 17 16 14 15 12 11 9 12 11 10 14 15 11 8 8 9 8 9 8 8 9 11 17 15 13 12 21 5 13 19 15 8 10 6 6 14
23 29 34 41 45 53 41 39 30 29 29 28 26 24 27 24 21 21 17 15 14 13 11 8 10 9 12 13 12 11 11 11 10 12 12 11 11 8 10 17 20 11 13 26 12 12 15 10 13 12 10 11 7 11
23 24 32 42 43 41 40 38 37 31 27 26 23 23 24 30 20 18 16 16 13 11 6 4 6 10 10 9 9 11 12 12 12 12 15 15 12 14 13 14 12 15 19 24 9 8 7 8 7 9 8 12 14 20
24 24 29 42 41 37 32 37 34 30 32 27 21 22 21 27 24 22 21 18 15 14 11 7 5 7 9 10 11 12 12 13 14 14 14 17 9 10 9 8 15 16 20 16 10 14 9 5 4 5 8 13 12 10
24 25 27 40 46 41 34 33 35 32 27 21 17 18 22 27 24 24 14 9 14 14 10 4 3 7 9 10 12 12 11 13 15 16 17 16 11 14 17 19 21 20 15 15 14 15 12 10 6 1 5 10 7 9
25 25 27 42 53 31 35 33 31 31 26 20 15 20 23 25 25 21 14 7 11 13 10 5 3 6 8 8 10 14 19 14 17 18 17 16 14 17 11 14 13 11 10 12 17 18 18 14 10 7 2 1 9 12
26 26 29 38 38 36 34 32 28 30 25 21 18 27 27 26 25 19 20 13 10 11 6 7 6 3 3 5 9 8 14 20 18 21 22 15 13 11 14 13 12 13 12 16 22 20 17 16 12 10 7 4 7 7
27 30 35 48 30 40 33 31 34 31 28 25 29 32 30 28 20 19 16 14 14 18 19 16 10 11 7 5 4 6 11 14 8 12 10 17 19 21 23 24 25 25 25 22 19 15 15 13 14 13 11 10 9 7
30 29 48 36 37 37 35 33 36 36 31 27 29 30 19 24 22 17 9 11 9 8 13 15 15 18 14 16 11 7 5 5 5 8 10 6 12 20 20 20 19 19 17 15 14 12 12 11 9 9 9 9 8 10
41 44 44 38 34 34 36 35 37 38 32 23 28 26 24 21 12 9 12 11 8 10 9 8 8 9 11 14 13 10 12 7 5 8 7 5 15 13 12 13 14 14 15 15 14 12 10 8 8 8 9 9 8 7
42 46 41 36 32 32 32 34 34 26 24 31 33 21 18 15 11 12 15 10 12 9 8 7 8 10 10 8 7 7 6 7 5 6 5 9 8 7 6 8 7 8 11 12 12 10 8 8 9 9 9 11 12 12
37 37 34 30 30 35 36 36 33 30 34 34 14 10 7 11 9 10 18 18 13 13 5 6 4 7 11 8 8 5 5 4 7 5 6 8 8 6 5 5 5 5 6 7 8 9 8 8 9 10 12 13 15 16
36 34 30 31 34 36 35 33 34 42 41 5 8 8 11 9 10 12 18 17 12 12 8 6 4 7 5 6 5 5 3 3 4 4 4 3 4 5 6 6 6 5 5 6 7 8 9 10 10 11 12 13 14 15
34 32 30 32 34 34 35 37 43 40 24 3 8 9 12 12 9 13 14 17 17 15 12 8 4 5 8 4 4 5 3 3 2 2 4 4 5 6 6 6 8 9 10 11 11 11 13 13 14 14 14 15 15 15
30 33 33 32 36 34 36 32 32 24 13 2 10 8 8 8 11 10 11 15 13 13 13 7 6 7 6 5 5 5 5 6 8 7 6 7 8 10 12 12 12 12 12 12 12 13 15 16 17 17 17 17 17 16
33 32 34 41 40 43 35 30 24 13 6 8 13 10 6 3 8 11 11 11 13 13 14 14 10 9 7 7 8 8 9 9 9 10 11 11 11 13 14 13 13 13 14 14 15 14 15 15 15 15 16 15 15 14
33 37 39 37 42 36 28 26 20 7 6 12 12 9 6 7 7 8 9 9 11 11 13 17 10 12 14 16 14 13 14 14 13 12 12 13 15 14 14 15 16 17 17 17 18 17 17 16 15 14 13 12 11 10
33 32 37 40 36 25 13 17 19 7 8 10 12 11 5 5 7 8 9 9 11 11 13 15 19 19 15 12 12 13 14 14 14 14 16 17 17 17 17 17 17 17 16 15 14 14 13 12 11 10 9 8 7 7
28 37 39 34 29 12 8 20 15 0 3 9 11 10 7 6 7 8 8 10 12 15 17 17 17 17 17 16 14 13 13 14 14 14 16 16 16 16 16 15 15 14 13 12 11 10 8 7 6 6 6 5 5 5
36 33 32 27 16 9 4 13 19 14 11 11 13 10 6 5 6 7 8 11 14 15 14 13 12 12 12 12 12 12 12 11 11 11 11 12 12 13 13 13 13 13 12 12 11 10 9 9 8 8 8 8 8 8
37 31 26 19 11 10 8 15 17 14 6 7 10 10 9 8 8 8 6 7 7 7 7 7 7 7 6 6 5 5 6 7 8 8 9 10 11 12 12 12 12 12 12 11 11 10 10 10 10 10 10 10 10 10
28 33 28 18 12 6 7 15 18 16 13 10 9 9 9 9 7 7 7 6 5 4 4 3 2 2 1 2 3 4 5 6 7 8 8 9 9 9 10 10 10 10 10 11 11 11 12 12 12 12 12 12 12 12
17 14 8 10 12 10 9 10 13 14 14 13 11 8 5 7 7 5 5 6 7 7 6 5 3 2 1 2 3 4 5 6 7 7 8 8 9 9 9 9 9 9 10 10 11 11 12 12 13 13 13 13 13 12
12 8 8 8 12 12 11 11 13 14 11 10 9 7 9 7 6 4 8 8 8 7 6 4 3 2 3 4 5 6 7 8 8 9 9 9 9 9 9 9 9 9 10 10 10 10 10 11 11 11 11 11 10 10
7 7 11 12 10 9 11 13 11 12 12 8 11 11 9 5 5 8 10 9 8 7 5 4 3 3 4 5 6 7 8 9 9 9 9 9 9 9 9 9 9 10 9 9 9 9 10 10 10 10 10 9 9 9
10 10 11 10 11 11 10 9 11 12 10 8 12 11 8 7 7 12 10 9 8 7 5 4 2 2 3 5 6 7 8 9 9 9 9 9 9 10 10 10 10 10 10 10 10 9 9 8 8 8 8 8 8 8
13 11 11 11 12 13 11 12 11 10 10 11 15 11 9 10 13 12 11 10 8 7 5 3 2 3 5 7 7 8 9 9 10 10 10 10 10 9 10 9 10 10 11 11 11 10 10 10 10 10 9 9 9 10
17 16 14 13 14 14 12 12 11 11 12 16 11 10 13 14 13 13 12 11 9 6 4 3 3 5 6 8 8 8 9 9 9 10 10 11 11 11 11 11 11 11 11 11 10 10 10 10 9 10 10 10 10 10
14 13 14 15 16 13 13 14 12 13 17 15 14 14 13 14 14 13 12 10 8 5 3 2 4 6 7 8 9 8 9 9 10 10 11 11 11 11 11 10 10 10 10 10 9 9 9 9 9 9 9 9 9 9
13 15 16 15 16 14 16 15 15 18 19 19 19 18 16 15 14 13 11 10 7 4 1 2 5 6 8 8 8 9 9 9 10 10 10 9 9 9 9 9 8 8 8 7 7 7 7 7 7 7 8 8 8 9
14 17 17 16 16 15 16 17 19 20 20 21 20 19 19 17 16 14 11 9 7 4 1 2 5 7 8 8 8 9 9 9 8 8 8 8 8 8 8 8 8 8 8 8 8 8 8 8 8 9 9 9 10 10

GFSWCAN_700_spd_117.txt.gz
Wind_Speed
54 46 47 40 32 35 36 33 33 32 30 31 28 24 22 23 23 21 14 14 15 13 10 12 17 13 11 10 9 7 6 8 6 10 10 8 6 6 9 12 6 8 11 6 9 5 4 23 22 17 21 20 20 8
39 50 56 54 39 35 36 34 34 35 34 31 27 25 20 21 24 22 15 13 13 12 13 12 14 17 19 18 14 14 10 10 5 6 6 5 8 9 11 9 11 4 12 11 7 18 28 25 20 17 17 16 4 6
39 40 47 56 53 43 37 42 33 34 34 33 29 24 21 20 24 24 16 15 14 15 14 16 14 14 13 13 17 13 10 12 11 12 12 8 8 8 11 12 12 14 11 10 20 13 29 21 20 16 14 16 11 3
32 39 40 45 45 42 44 46 44 36 38 38 30 25 23 21 23 24 17 13 13 10 10 3 10 8 11 12 13 10 13 9 12 11 12 12 10 8 10 16 18 16 12 17 19 17 14 15 16 15 13 11 12 13
25 29 33 42 45 42 47 50 49 33 39 31 28 24 21 22 24 23 18 15 14 9 6 7 11 10 12 9 10 11 14 14 12 14 13 14 10 13 14 16 18 9 14 16 20 14 14 14 12 11 11 11 11 15
24 24 25 29 36 47 44 48 41 32 33 28 22 19 18 20 26 23 21 16 15 13 10 7 6 12 10 10 11 11 12 13 15 15 15 17 10 10 8 10 9 15 17 17 11 16 18 17 12 7 7 7 9 10
25 24 23 26 37 38 43 44 33 33 32 25 22 18 19 22 26 23 17 14 15 15 10 7 3 8 9 9 11 13 13 12 13 18 19 15 12 15 16 15 18 22 19 15 11 15 18 20 10 6 3 6 6 6
29 24 23 25 35 36 38 39 38 31 29 25 23 20 22 25 28 26 20 11 12 15 11 5 5 7 11 11 11 12 15 16 19 16 14 14 11 13 12 16 19 18 16 12 12 18 22 20 15 9 6 5 9 11
29 25 23 26 38 38 44 38 33 40 38 32 25 23 25 30 27 25 19 12 12 16 9 7 10 9 10 10 10 11 12 14 18 20 17 11 13 12 15 20 21 15 16 14 17 25 22 16 17 14 10 7 8 10
27 23 25 25 34 47 35 40 37 36 31 28 25 28 28 30 26 21 16 15 14 17 15 15 12 5 9 6 4 5 9 14 9 14 7 19 16 24 22 26 28 26 27 27 24 22 16 14 16 14 12 10 8 9
26 26 24 24 36 38 44 39 36 38 34 30 32 31 24 23 21 17 10 12 11 9 14 19 15 11 11 11 11 7 6 4 6 8 10 6 11 21 20 24 24 24 22 19 18 15 14 14 15 13 11 10 8 7
28 27 28 40 36 44 42 40 41 41 36 28 32 25 23 25 12 8 11 11 9 10 9 10 12 15 15 14 12 8 9 6 7 8 6 5 16 16 17 17 17 17 17 16 16 14 12 12 12 10 10 10 9 9
30 32 37 37 40 41 40 43 40 34 25 27 31 24 22 16 14 10 16 10 15 10 15 8 7 10 13 9 9 7 6 8 5 6 5 11 10 10 11 10 10 9 10 11 11 11 10 10 9 9 10 10 11 12
40 40 40 42 41 42 45 46 38 32 26 31 26 16 11 9 10 12 16 16 16 18 8 6 6 6 10 10 8 5 6 5 5 6 6 9 9 9 6 6 7 8 8 8 8 9 10 10 10 10 10 11 12 13
43 41 41 41 39 36 41 42 35 29 30 24 9 10 13 13 12 13 16 17 17 13 11 6 3 6 7 7 6 7 4 4 3 3 6 5 4 4 4 5 6 7 7 8 9 10 10 11 12 13 13 14 15 15
41 39 37 37 35 34 35 34 30 28 32 6 4 9 13 9 10 13 16 18 15 13 10 7 5 4 8 5 5 5 2 1 3 3 6 5 5 5 6 7 9 11 13 13 14 14 15 15 15 16 17 18 18 18
39 38 38 38 38 35 34 33 28 37 12 1 5 8 12 14 9 11 12 15 16 13 10 7 6 7 2 4 5 5 6 7 9 8 7 7 8 9 11 12 13 14 15 15 15 15 16 16 17 18 18 19 19 20
35 38 38 39 37 33 30 30 26 20 7 3 10 11 11 10 10 11 12 11 12 13 14 14 10 9 5 4 8 9 9 11 12 12 13 14 13 13 13 15 16 16 16 16 17 17 18 18 18 18 18 19 19 19
31 35 36 35 33 30 25 28 21 12 7 7 12 10 8 6 5 8 12 12 11 13 14 15 10 11 16 19 18 17 16 15 15 15 16 16 15 16 17 17 18 18 18 18 18 18 17 17 17 17 17 17 16 16
27 31 34 36 35 21 15 18 23 3 5 8 10 10 8 6 7 9 11 12 12 12 14 16 19 17 13 13 16 15 14 16 18 19 18 17 18 18 17 17 16 16 16 16 16 16 15 14 13 13 12 12 11 11
31 33 38 35 28 15 6 17 20 6 6 5 8 11 9 7 5 8 9 11 12 15 16 16 16 17 18 17 16 16 15 15 15 15 17 15 15 14 14 14 14 13 13 13 12 12 12 12 11 11 11 10 10 10
34 36 35 28 22 10 9 14 20 11 5 7 7 10 9 7 7 8 9 12 14 15 16 17 17 16 15 14 13 12 12 11 11 10 11 11 12 12 12 13 13 13 12 12 12 12 11 11 11 11 11 11 11 11
32 34 32 27 16 5 6 8 15 20 14 11 8 12 11 10 9 8 8 10 11 11 11 10 10 9 9 8 7 6 6 6 7 8 9 10 10 11 12 12 12 12 12 12 12 12 12 12 12 12 12 13 13 13
29 27 24 14 5 4 5 7 13 15 15 13 9 11 10 10 9 10 11 9 8 8 7 6 6 5 4 3 3 4 5 6 6 7 8 9 10 10 11 11 11 11 12 12 13 13 13 13 13 13 14 14 14 14
18 10 3 5 6 11 12 11 12 16 18 16 14 11 8 7 8 8 8 7 8 7 7 6 5 4 3 2 1 3 4 5 6 7 8 8 9 9 10 10 10 11 11 12 12 13 13 13 13 13 13 13 13 13
6 6 8 7 13 15 19 18 14 15 15 14 10 10 9 8 6 5 7 8 9 9 8 7 5 4 2 1 3 5 6 8 9 9 10 10 11 11 11 11 11 10 11 11 12 12 12 12 12 12 12 12 12 12
11 7 12 16 13 12 14 16 16 13 12 11 11 11 9 6 7 7 11 11 11 10 8 6 4 2 0 3 5 6 8 9 9 10 11 11 11 11 11 11 11 11 11 11 11 11 11 11 11 11 11 11 11 11
13 16 15 13 13 15 17 15 13 14 13 12 12 11 7 8 8 12 14 12 11 10 7 5 3 1 2 3 5 7 8 9 9 10 11 11 11 11 11 12 12 12 12 12 12 12 12 12 12 12 12 11 11 11
21 20 16 15 15 15 16 16 15 14 12 13 14 14 11 10 10 15 14 13 11 9 7 5 3 1 2 5 6 7 8 9 9 10 11 11 11 11 12 13 13 13 13 13 13 13 12 12 13 13 13 13 13 13
24 20 20 19 18 18 17 15 13 14 13 12 14 13 11 11 15 15 14 13 11 9 7 5 2 1 3 5 7 8 8 9 9 10 11 11 12 12 12 12 12 12 12 12 12 12 11 11 11 11 11 11 12 12
20 20 20 20 21 18 17 15 15 15 14 16 17 13 13 16 16 15 14 13 12 10 7 4 2 2 4 6 7 8 8 9 9 10 11 11 11 11 11 11 11 11 11 10 10 10 10 10 10 10 10 10 10 10
22 22 21 21 18 16 18 16 16 16 16 19 17 16 18 18 17 16 16 14 12 10 7 5 2 2 5 6 7 8 8 9 9 9 10 10 10 10 10 10 10 10 10 10 10 10 10 10 10 10 10 10 10 11
17 18 18 18 16 17 18 17 18 16 19 20 20 22 22 21 21 19 18 16 14 11 8 5 3 3 5 7 8 8 8 8 9 9 9 10 11 11 11 11 11 10 10 10 10 10 9 9 9 9 10 10 10 10

GFSWCAN_700_spd_120.txt.gz
Wind_Speed
43 40 40 43 47 41 37 32 33 31 27 26 26 22 24 20 19 21 16 14 17 15 10 13 18 12 11 12 7 9 9 8 6 9 10 11 8 6 8 12 8 9 10 9 12 10 5 31 30 22 20 18 25 29
50 45 38 40 43 41 45 39 43 36 31 30 29 26 22 19 18 19 14 12 13 14 14 20 18 19 23 21 14 17 9 7 4 5 5 5 8 8 10 9 11 4 12 12 8 13 17 28 24 19 20 18 20 18
42 48 49 45 41 30 35 42 34 36 34 31 30 29 22 16 17 20 15 12 12 13 15 17 15 14 18 16 27 19 10 12 12 14 14 9 9 7 10 10 14 15 12 9 16 15 23 20 14 15 16 13 13 19
28 35 41 47 48 45 30 33 37 35 32 32 29 25 19 16 14 16 18 14 12 11 13 5 6 12 11 12 14 19 20 12 15 12 12 13 10 7 11 15 16 19 17 16 9 10 14 19 14 10 12 11 7 12
20 27 36 36 46 56 54 42 23 37 27 34 30 28 22 16 11 13 20 16 13 11 7 6 10 7 11 10 11 13 15 19 13 14 14 14 9 13 14 14 16 16 8 14 15 13 19 22 22 15 10 9 7 7
20 23 30 34 36 42 44 34 39 33 38 22 39 33 23 14 11 18 22 20 15 13 12 11 9 12 9 10 10 11 10 12 13 14 14 16 12 12 9 8 12 10 15 16 19 12 16 21 23 16 10 8 7 7
23 21 24 29 32 37 37 32 39 36 27 29 30 26 21 18 17 21 18 16 16 14 13 8 6 6 9 8 12 12 13 13 13 16 18 17 13 12 16 17 21 18 16 19 16 14 15 20 21 15 10 9 9 8
25 21 21 23 25 30 38 37 35 37 33 30 30 23 19 20 23 24 22 17 12 14 13 6 7 10 12 13 13 11 11 12 17 18 17 13 10 12 14 13 18 15 16 18 15 17 20 23 20 16 12 10 11 11
27 23 22 21 21 30 34 41 37 33 27 35 27 23 23 23 26 25 23 15 11 15 10 10 12 7 11 13 11 9 11 13 13 19 19 11 12 10 13 15 17 14 21 21 23 25 27 23 17 14 15 13 11 12
29 26 22 20 22 32 32 34 38 38 39 37 31 31 27 25 25 21 20 18 16 19 22 21 15 10 11 11 9 6 7 9 9 15 5 18 16 21 22 24 25 25 27 28 25 25 22 17 14 15 15 13 11 11
28 28 24 21 23 34 32 35 41 39 43 40 35 27 19 25 23 20 13 13 11 11 15 20 18 11 8 9 9 6 6 5 6 7 11 6 11 22 22 23 24 24 24 24 22 18 16 15 15 15 13 11 8 8
30 26 24 25 29 39 43 32 34 49 39 31 26 22 23 23 13 9 11 11 9 12 8 12 17 16 13 11 9 7 9 6 7 6 7 5 13 13 14 15 16 16 18 18 16 17 15 13 14 13 12 9 8 8
28 24 24 26 29 43 41 44 44 37 31 31 26 25 21 16 13 11 14 12 15 12 12 10 14 17 17 13 8 6 6 8 7 7 4 10 9 10 10 10 10 10 9 9 10 11 11 11 11 11 11 10 9 10
25 25 25 29 37 43 47 44 37 33 33 29 24 18 11 9 11 15 19 18 17 14 11 11 10 9 11 10 8 5 7 6 4 5 5 6 6 9 10 8 7 8 9 8 8 8 8 9 11 11 12 13 13 13
28 32 36 38 45 52 46 41 37 27 28 23 13 10 15 11 11 16 15 16 15 14 13 7 5 7 8 6 6 6 5 5 2 2 6 6 6 5 5 6 6 7 8 10 11 12 11 11 12 13 13 14 16 17
37 36 41 45 45 45 47 38 31 30 22 20 8 9 13 14 13 15 16 17 17 16 11 10 6 4 7 5 6 6 6 1 1 3 6 6 5 7 8 9 10 11 12 14 15 15 14 14 14 14 15 15 16 17
46 43 42 41 46 44 40 35 29 26 16 5 2 10 17 13 14 14 13 17 16 13 14 9 5 7 3 5 5 5 6 8 10 8 7 7 8 10 13 14 14 15 16 16 16 16 17 17 17 17 17 17 17 18
42 40 40 36 44 42 39 31 26 16 19 3 4 12 14 9 7 9 10 14 15 14 13 10 9 8 5 3 5 4 9 11 12 13 13 13 12 13 14 14 17 19 19 19 19 19 20 20 20 20 20 20 19 19
38 38 36 37 37 34 31 25 22 11 9 2 5 7 8 9 9 10 13 13 12 13 13 14 8 11 17 18 19 18 15 14 14 14 15 17 19 19 18 19 20 20 20 21 20 20 19 19 19 19 19 18 18 18
37 37 33 30 29 26 17 11 26 7 3 7 10 8 7 6 5 8 11 13 14 14 15 16 20 18 15 12 13 13 17 17 15 17 18 18 18 18 19 20 19 18 17 16 16 17 16 16 15 15 15 15 15 14
33 33 30 26 21 15 9 14 24 3 2 3 7 8 7 7 5 6 10 11 13 14 16 16 15 14 14 15 16 16 16 17 16 17 18 15 16 15 14 14 14 15 15 15 15 15 14 15 15 14 14 14 14 13
32 30 31 23 18 12 4 10 17 12 2 4 5 5 7 6 5 6 8 10 12 14 15 15 15 16 16 16 16 15 14 13 12 13 13 12 12 12 13 13 14 13 13 13 14 14 14 14 15 15 15 15 14 15
29 32 28 21 9 6 6 7 11 14 13 9 10 5 7 8 7 7 10 10 11 14 15 13 14 13 12 10 10 9 8 7 8 9 9 10 11 11 11 11 12 12 12 12 13 13 13 13 13 13 14 14 15 15
29 28 20 14 5 3 5 4 5 11 12 10 10 7 8 10 10 11 14 13 10 10 9 9 8 8 7 7 6 5 5 6 6 7 8 10 10 11 12 12 12 13 13 13 13 13 14 14 14 14 14 14 14 15
18 13 8 9 5 5 5 6 6 7 10 11 12 12 10 8 9 11 13 8 9 9 8 8 8 7 6 4 3 3 4 5 6 8 9 10 11 12 12 12 13 13 13 14 14 14 13 14 13 14 14 14 14 13
11 8 8 5 6 7 8 9 12 13 13 12 10 10 9 9 8 7 8 7 8 9 9 8 7 6 5 4 2 3 5 7 9 10 11 12 13 13 14 15 15 11 13 14 14 14 14 14 13 13 13 13 13 13
7 4 7 8 11 10 9 11 13 14 11 10 13 11 8 5 6 9 7 9 10 10 10 9 8 6 3 2 3 5 7 9 10 11 11 12 12 13 13 14 14 14 14 14 14 14 14 14 14 14 14 13 13 13
10 13 13 14 12 12 14 15 15 14 13 14 14 9 7 8 9 7 9 11 12 11 10 9 7 4 2 3 5 7 8 9 10 10 11 11 11 12 13 13 14 15 15 15 15 15 14 14 15 15 15 15 15 14
24 24 19 16 16 16 16 17 18 19 16 14 15 15 16 13 11 9 12 14 13 12 11 9 6 4 3 4 5 7 8 9 10 10 11 11 10 12 13 14 14 14 15 14 14 14 14 14 14 14 14 14 14 14
29 28 27 25 23 23 22 20 20 14 17 16 15 15 15 14 12 12 15 15 14 13 11 9 7 5 4 4 6 7 8 9 10 11 11 12 13 13 13 13 13 13 14 14 13 13 13 13 12 12 12 12 13 13
24 23 26 28 29 28 23 22 21 19 18 17 18 17 15 14 14 16 17 17 15 14 12 10 7 5 4 4 6 7 8 9 10 10 11 11 12 12 12 13 13 13 12 12 12 12 12 11 11 11 11 11 11 12
25 25 25 25 26 22 23 22 20 19 18 19 18 17 18 16 17 18 17 16 16 15 13 10 8 6 4 5 6 7 8 9 10 10 10 11 12 12 13 13 13 13 13 12 12 12 12 12 11 11 11 12 12 12
21 21 23 24 24 23 21 19 19 19 19 19 18 20 21 20 23 21 21 20 18 17 15 12 9 7 6 5 6 7 9 9 9 10 10 11 12 12 12 12 11 11 11 11 10 10 9 9 9 10 10 10 11 11

GFSWCAN_700_spd_123.txt.gz
Wind_Speed
36 38 38 34 30 29 28 27 26 23 21 18 18 22 20 18 16 12 13 18 20 20 18 20 24 20 17 11 11 9 9 11 11 9 7 6 6 3 4 10 10 10 11 9 9 7 6 32 31 24 16 17 16 17
36 34 36 39 42 31 32 29 28 27 24 22 19 18 20 15 15 11 13 14 13 17 14 16 16 18 18 22 19 18 11 7 7 5 6 2 7 7 7 6 8 6 12 11 11 4 20 19 21 16 11 12 14 12
36 40 36 36 37 41 38 33 33 32 28 27 21 19 18 16 11 7 15 12 8 8 9 13 11 11 15 17 25 20 18 18 17 16 15 13 11 7 7 7 6 12 12 12 9 11 16 17 17 14 9 8 6 11
27 33 38 41 29 36 34 43 41 31 29 27 23 21 20 15 9 8 17 13 9 6 6 5 7 8 9 12 17 23 25 22 18 16 13 13 14 8 11 11 12 15 15 11 6 7 12 17 19 15 10 8 9 10
18 22 27 26 46 41 30 30 39 40 32 31 28 23 23 17 11 10 20 15 10 8 3 1 3 5 6 5 7 12 15 25 21 17 14 14 16 13 15 15 15 13 12 12 11 12 11 14 20 20 14 10 8 7
17 17 19 22 27 36 37 37 30 43 33 30 28 26 22 16 13 15 21 17 13 9 9 8 7 8 8 6 7 8 9 12 20 20 17 16 14 13 11 11 10 5 8 9 13 15 14 13 17 21 16 14 9 10
20 18 20 22 25 31 33 35 34 26 30 29 31 28 24 20 16 19 16 16 16 12 10 6 4 6 7 5 5 8 7 9 11 14 18 16 12 13 19 22 16 16 13 11 11 16 17 18 20 19 13 14 13 10
24 20 18 20 24 29 32 31 39 36 25 27 23 34 29 24 22 19 15 14 14 14 12 6 5 7 9 12 11 10 11 13 16 18 20 18 13 13 16 20 16 13 10 10 12 16 21 22 23 22 11 14 15 13
25 22 19 19 22 24 27 29 31 32 28 22 26 32 28 25 25 22 16 15 14 15 10 11 10 3 14 15 14 13 14 16 14 19 19 13 16 11 12 16 16 14 14 15 18 22 27 26 20 18 13 14 15 14
26 23 20 18 21 22 27 32 29 26 34 27 35 30 26 27 27 21 19 16 14 14 21 22 12 16 11 12 12 9 7 8 8 13 8 14 20 18 19 20 22 21 23 23 24 26 24 21 18 14 14 15 13 12
27 24 22 19 21 27 30 37 36 30 38 40 32 26 19 24 21 20 13 11 10 10 18 23 22 17 12 12 10 7 5 4 5 6 8 6 13 20 23 24 25 24 23 22 22 19 16 17 17 14 13 12 11 11
28 26 24 18 23 28 30 39 40 33 46 42 36 24 22 22 13 10 9 9 9 12 10 8 15 19 16 15 8 5 7 5 6 6 8 5 12 14 15 15 15 17 18 16 14 11 10 11 12 11 11 10 9 8
28 27 24 21 23 30 31 41 44 39 43 36 30 25 19 16 13 12 14 13 14 8 11 8 15 18 15 9 7 6 6 7 6 7 6 8 8 9 9 10 11 11 9 9 8 9 8 8 8 9 10 9 8 9
28 26 23 24 30 37 39 42 45 47 42 35 26 19 12 9 11 12 22 21 17 15 11 9 10 15 15 13 9 5 6 6 5 3 2 2 3 6 8 6 6 6 6 7 8 9 10 10 10 10 9 9 9 9
26 26 26 29 37 33 49 45 45 43 38 25 10 10 11 13 12 14 16 17 16 16 15 9 10 12 11 7 6 6 4 5 2 3 2 2 2 3 3 4 6 7 8 10 11 11 12 12 14 14 13 12 12 12
28 28 30 30 35 48 52 45 41 37 28 17 9 11 10 11 13 11 18 15 17 15 14 9 8 6 7 5 6 7 4 1 2 2 4 4 3 4 6 8 9 10 11 12 13 14 14 13 12 14 15 15 14 14
31 35 39 52 55 47 42 38 35 28 16 10 5 11 15 11 13 12 13 13 13 15 13 9 6 4 3 6 6 6 3 3 6 5 5 6 7 9 11 12 13 13 13 16 17 17 17 16 17 16 16 16 16 16
36 47 56 55 46 44 39 32 28 9 13 18 5 15 16 12 12 13 11 16 17 15 15 9 10 7 4 4 2 4 5 10 9 10 10 10 10 12 14 15 16 18 20 20 20 19 19 18 17 16 16 14 14 14
48 51 50 46 39 30 28 23 16 6 21 7 5 12 14 10 8 9 10 14 15 15 15 15 8 11 16 16 16 16 15 12 9 12 12 12 14 17 17 17 18 18 18 18 18 17 16 16 16 16 16 15 14 16
38 39 44 42 34 25 16 13 17 12 5 3 8 7 8 7 6 6 10 13 15 15 16 17 19 17 13 13 14 13 12 13 14 13 14 15 15 16 17 17 16 14 14 14 15 16 16 14 14 14 15 15 14 15
37 38 35 32 28 22 7 12 19 3 3 7 9 7 7 6 6 5 9 12 16 18 18 17 17 15 14 14 12 12 14 16 16 15 13 13 13 12 13 14 14 14 14 15 15 13 14 14 15 14 15 14 14 14
35 33 29 25 20 12 2 5 10 8 5 5 5 5 7 7 5 5 8 11 13 15 15 13 13 13 12 13 13 13 14 13 13 12 10 11 11 11 12 13 13 12 13 14 14 14 14 15 15 15 15 14 15 15
26 25 22 16 12 6 3 6 9 8 7 4 4 5 5 6 5 4 6 7 9 11 10 11 12 13 13 12 10 9 8 7 8 9 9 10 11 11 11 12 13 14 12 14 15 15 15 15 15 15 15 15 15 15
22 23 17 10 4 2 2 4 2 5 6 7 6 4 3 4 6 8 11 10 10 12 11 10 9 9 8 6 5 4 4 5 5 6 7 8 10 10 10 11 12 13 14 14 14 14 15 15 15 15 15 14 14 14
21 12 5 4 3 3 3 4 4 2 3 3 5 6 5 7 8 12 16 10 8 9 9 8 8 7 6 5 4 3 3 4 5 7 8 9 10 11 11 11 12 12 13 13 14 14 13 13 13 14 14 14 14 14
10 6 5 4 5 5 4 3 3 4 6 5 4 6 7 7 7 7 8 3 8 8 8 9 8 8 7 5 3 2 3 4 6 8 10 11 13 14 14 12 9 13 13 14 14 14 15 15 14 13 13 12 13 13
6 4 6 7 5 5 5 7 8 8 8 6 9 9 7 4 6 8 5 6 7 10 10 10 9 7 6 5 3 2 5 6 7 9 10 11 11 12 13 14 14 14 14 14 14 14 15 15 16 15 15 14 12 13
6 7 6 5 7 9 9 10 11 11 9 10 10 8 6 6 6 5 4 6 9 11 11 9 8 7 6 4 2 3 5 7 8 9 9 10 11 12 12 14 14 14 15 15 15 14 14 14 15 14 15 15 14 14
19 16 15 15 15 15 16 17 17 16 15 16 16 16 15 14 13 10 7 8 11 11 11 11 10 8 5 3 3 4 6 7 8 9 9 9 12 11 12 11 13 14 13 13 14 14 14 13 13 13 13 13 13 12
26 23 23 24 25 25 24 23 21 17 17 17 18 17 14 13 14 12 10 11 14 14 14 13 11 9 6 4 3 4 6 7 8 9 10 10 10 10 11 13 13 14 14 14 13 13 13 13 12 11 11 12 12 11
25 24 25 26 28 27 25 25 25 25 24 22 21 20 16 16 16 15 13 15 18 17 16 14 12 10 7 5 4 4 6 7 8 9 10 10 11 12 13 14 14 14 14 13 13 12 12 12 12 11 11 11 11 11
27 28 27 28 29 27 26 24 24 24 24 23 23 19 18 18 18 18 16 18 18 19 18 16 14 11 9 7 5 5 5 7 9 10 10 10 11 12 13 13 13 13 12 12 11 11 11 10 10 10 9 10 10 10
22 22 22 22 24 25 24 24 25 25 24 23 22 20 20 20 21 20 17 18 18 18 18 17 15 14 11 9 7 6 6 6 8 9 9 10 11 12 12 12 12 11 11 10 10 9 9 9 10 11 11 12 12 13

GFSWCAN_700_spd_126.txt.gz
Wind_Speed
29 29 26 24 21 24 24 22 20 19 16 20 24 23 21 23 21 16 16 18 19 21 17 23 22 19 17 12 12 14 12 12 11 7 4 3 4 2 2 4 5 5 5 5 5 4 3 20 21 16 11 9 11 12
33 32 33 28 26 21 23 25 24 21 17 13 13 17 17 17 17 15 13 16 19 19 15 19 20 21 18 17 12 11 12 9 11 7 7 5 4 4 5 2 4 3 6 5 4 5 9 14 17 17 11 10 11 9
26 30 34 34 31 28 28 24 23 23 19 20 18 16 16 15 15 13 12 14 14 16 17 13 16 19 19 19 18 17 17 17 16 12 11 10 9 9 8 6 7 6 8 10 11 8 10 11 14 16 13 9 10 10
23 26 30 30 34 37 29 30 27 24 23 21 16 16 18 15 15 12 14 16 14 11 9 8 10 13 14 14 13 15 22 21 20 16 15 15 13 9 9 11 15 12 14 12 8 9 11 8 10 14 13 9 10 10
20 24 30 32 30 37 39 37 28 25 25 27 22 20 17 16 15 12 15 17 13 9 10 8 7 6 6 6 8 11 14 21 21 18 16 13 13 13 15 16 18 15 16 12 10 5 7 10 11 14 17 13 11 11
16 20 26 30 32 29 27 31 33 31 29 28 29 19 15 19 15 14 18 18 12 8 7 4 5 5 4 2 2 1 6 10 15 19 19 17 15 11 11 15 13 11 7 9 11 11 10 14 15 17 21 17 13 11
16 16 20 27 25 29 31 30 30 38 35 31 23 19 19 18 17 17 15 16 13 9 4 3 4 7 8 6 6 7 6 6 7 10 14 14 13 15 21 24 16 16 16 15 15 13 13 13 18 21 21 18 14 12
18 18 21 26 27 26 38 35 28 31 29 29 28 22 26 22 19 16 13 15 17 12 6 3 5 8 7 7 7 6 7 7 10 12 16 16 14 16 18 20 13 13 15 14 14 14 17 21 24 24 21 16 15 14
22 19 19 23 25 27 28 38 36 29 35 35 31 35 31 25 22 19 12 12 14 14 7 7 7 6 10 10 9 7 8 11 12 17 17 13 15 11 15 17 15 11 12 12 12 18 23 25 28 25 20 16 15 15
24 22 19 19 23 26 27 25 23 26 26 40 45 42 33 28 24 21 15 13 11 13 16 14 10 10 6 11 12 8 6 7 9 10 7 14 20 22 20 21 20 17 18 17 20 23 23 24 26 23 20 17 15 15
26 23 20 18 22 27 28 29 26 28 30 34 43 39 27 27 23 16 9 7 8 7 12 18 17 13 12 12 13 8 4 4 5 4 6 6 11 15 19 23 24 23 21 23 23 21 21 21 21 20 17 16 15 14
27 25 22 21 24 30 36 35 36 33 26 32 40 32 30 27 12 8 7 8 8 9 10 4 11 18 18 12 9 9 7 5 6 5 6 6 18 15 15 17 20 20 17 16 15 13 12 11 12 13 13 13 12 13
30 26 24 24 27 36 41 37 30 32 29 33 31 30 24 14 12 10 14 13 12 6 6 12 6 16 19 20 9 7 6 6 5 6 7 11 10 9 10 12 13 13 13 11 10 8 7 7 8 9 10 11 11 11
31 28 23 25 29 39 48 40 44 36 41 30 27 19 12 10 12 18 19 19 11 10 8 5 8 13 14 11 5 4 6 5 4 5 5 5 4 3 7 8 8 7 6 5 6 8 10 11 11 11 12 12 11 11
30 27 24 26 34 43 41 43 50 47 46 27 10 9 11 13 10 10 13 11 16 11 10 10 11 13 13 8 7 6 4 4 5 3 1 1 0 2 3 3 3 4 7 8 8 9 11 12 14 13 12 12 13 14
29 27 26 33 38 43 41 34 31 41 29 20 9 12 14 13 15 11 11 12 13 16 16 15 10 8 8 6 7 7 3 3 1 2 3 2 2 3 5 7 8 10 11 12 12 13 13 14 14 15 17 16 14 14
28 29 32 37 43 50 43 30 38 25 12 12 9 11 14 13 15 11 11 17 15 16 18 13 9 6 6 6 7 7 7 4 2 3 5 6 7 8 9 10 12 13 14 15 16 16 16 16 16 15 15 16 19 20
27 28 41 47 45 36 34 38 32 11 14 15 10 11 14 10 7 12 10 15 15 15 14 10 7 9 6 4 2 7 4 6 9 8 7 8 10 12 12 15 17 16 16 17 18 16 15 14 13 13 13 13 13 13
34 39 47 52 34 38 38 28 17 9 17 14 11 13 16 13 10 12 13 14 17 15 15 15 7 14 16 12 10 8 10 12 10 9 10 10 11 13 15 15 15 15 15 13 12 12 14 14 14 14 13 14 14 12
49 43 38 38 34 30 19 20 12 8 17 9 6 12 14 11 9 9 9 11 18 18 17 19 19 15 10 10 10 11 12 11 10 12 12 12 13 13 13 13 12 13 13 13 13 12 12 12 13 14 14 14 14 14
46 44 38 29 24 11 8 12 8 7 8 12 13 13 12 9 8 7 10 14 17 19 18 16 15 15 14 14 14 12 9 9 11 12 10 10 10 11 11 10 11 11 12 11 12 14 14 14 14 14 14 14 14 14
38 33 28 23 12 7 4 13 7 4 6 10 11 9 8 8 8 8 10 14 15 17 16 15 14 13 13 13 13 12 11 10 9 7 6 7 7 8 9 9 10 11 13 13 14 14 15 15 15 15 15 15 14 14
29 26 17 11 7 5 4 5 4 2 4 5 4 3 8 8 8 6 7 9 12 12 13 14 15 15 15 13 12 11 9 7 5 4 5 6 7 8 9 10 11 11 12 12 13 14 15 15 15 15 15 15 15 14
22 19 14 5 4 5 4 4 6 5 4 5 3 4 5 6 6 9 10 7 8 11 13 12 12 12 11 9 9 8 6 4 3 4 6 7 7 8 11 11 12 12 12 12 13 14 14 14 15 14 15 15 14 14
20 11 5 5 4 3 3 3 2 1 1 2 4 4 4 5 7 11 14 11 11 12 14 12 11 10 10 10 8 6 4 3 4 4 5 6 7 7 8 10 12 13 14 14 14 14 14 14 14 14 14 14 14 13
9 5 4 1 2 2 2 1 1 2 1 1 2 3 4 6 8 7 7 5 7 10 11 11 11 11 11 10 8 6 6 4 4 4 4 5 6 7 8 10 12 13 14 15 15 16 16 15 14 14 14 15 15 15
6 3 6 5 2 1 2 3 4 5 5 3 4 5 5 4 4 3 2 5 9 10 12 13 14 14 12 11 9 7 6 4 3 5 6 7 8 7 7 8 9 11 13 14 14 15 15 15 15 15 15 15 13 15
8 8 7 5 2 2 4 5 6 5 6 7 8 5 4 4 3 5 7 7 7 9 12 14 15 15 14 12 9 6 5 3 3 5 6 8 9 10 10 11 12 13 14 14 14 14 15 14 14 14 14 14 14 14
17 11 8 7 9 12 14 13 13 14 13 14 13 13 14 12 11 10 9 9 7 11 14 15 17 16 13 11 8 7 5 3 3 4 7 8 8 9 11 12 12 14 15 15 15 15 14 14 14 13 13 13 12 12
20 21 22 22 22 21 21 19 18 17 18 19 20 20 18 16 14 13 11 10 9 13 16 18 18 16 14 12 10 8 6 4 3 4 6 8 9 9 10 12 13 13 13 13 13 13 13 13 13 13 13 12 12 13
22 21 23 26 27 24 23 22 22 22 22 23 23 22 21 21 18 17 15 15 14 16 19 19 18 17 15 13 11 9 7 5 4 4 5 6 7 8 10 11 13 13 13 12 12 11 11 11 11 11 11 10 10 11
23 25 26 27 27 26 25 25 25 26 25 25 25 24 23 23 22 22 18 18 18 17 20 21 20 18 17 16 13 11 9 7 6 5 6 7 8 8 10 11 12 12 12 11 11 10 9 9 10 10 11 11 12 13
22 22 22 22 23 22 21 20 22 23 23 24 24 23 23 24 25 24 19 18 17 19 22 22 23 23 22 21 17 14 11 9 7 6 5 7 8 9 10 10 11 10 10 10 10 9 9 10 11 11 12 13 13 14

GFSWCAN_700_spd_132.txt.gz
Wind_Speed
19 20 26 20 16 15 14 16 17 21 24 33 30 30 34 35 33 25 25 23 22 20 27 25 19 20 22 21 20 19 18 18 14 12 9 7 8 11 9 11 10 10 7 7 6 5 6 4 12 9 12 15 16 14
13 24 22 27 21 19 16 16 16 23 28 27 25 26 25 27 27 26 23 22 23 22 23 22 22 18 16 13 15 17 18 15 15 12 10 8 9 11 10 7 13 7 8 4 6 6 11 17 14 17 17 17 16 15
17 21 24 22 29 22 19 16 15 16 23 28 29 27 26 26 25 24 21 22 23 22 23 21 20 19 18 15 13 14 17 11 13 10 11 8 6 10 10 13 11 13 11 13 13 12 12 16 16 17 17 17 18 18
23 15 23 22 28 27 22 19 18 17 20 21 29 28 27 26 24 21 20 23 25 24 19 22 20 20 18 15 13 13 12 13 12 12 11 9 9 7 12 14 15 16 16 19 21 19 17 17 13 12 15 17 19 21
20 23 26 19 22 29 23 23 20 20 22 22 21 23 24 22 21 18 17 19 23 24 21 23 20 19 17 16 15 14 15 15 14 14 13 12 13 11 12 12 13 13 17 20 23 19 16 17 16 16 16 16 20 21
20 22 24 29 21 20 23 25 23 22 22 25 24 25 22 21 18 16 17 19 21 18 21 19 16 14 15 15 13 12 12 12 12 12 12 13 12 9 6 9 10 9 10 13 16 16 17 17 16 15 16 21 24 23
19 22 27 26 27 21 13 9 27 23 23 25 23 23 21 20 17 17 15 20 18 18 21 20 17 16 13 11 9 7 7 8 8 9 10 8 7 9 14 19 15 11 12 13 15 15 11 14 15 16 18 23 25 23
19 22 24 28 30 26 21 18 26 24 26 25 23 25 23 21 18 15 16 20 19 18 16 10 12 19 16 12 8 6 6 7 7 6 5 4 7 10 10 9 8 8 10 12 13 14 15 14 15 17 22 25 25 23
18 22 25 26 32 34 31 27 28 27 21 28 25 23 22 19 18 14 17 19 18 13 9 9 16 18 17 11 9 7 7 3 3 5 5 6 11 9 9 11 10 9 8 7 7 9 12 15 19 21 25 26 26 22
18 22 27 28 25 34 38 37 26 24 21 27 26 23 21 17 16 13 16 17 15 11 5 12 13 11 17 13 11 7 5 3 1 4 4 8 14 11 11 12 13 12 11 11 11 13 15 19 23 25 25 23 21 19
19 21 28 30 28 29 30 32 29 25 23 30 27 22 21 19 17 10 9 9 8 5 9 12 13 10 14 12 11 6 3 2 2 3 3 4 7 6 8 7 7 7 9 10 11 15 20 21 21 19 16 15 15 14
21 21 26 30 31 31 33 31 39 38 32 27 23 21 22 18 7 5 7 6 5 5 7 13 15 13 13 11 9 6 4 4 3 3 3 5 8 10 9 6 7 9 10 12 15 18 17 17 16 13 13 13 13 12
22 20 23 29 32 31 37 30 37 35 31 31 29 25 18 12 8 8 10 9 6 8 11 10 15 19 15 11 7 6 6 4 3 3 4 7 13 12 10 10 9 10 12 13 13 13 11 11 12 13 13 14 14 14
23 20 21 26 33 36 34 38 32 38 39 30 19 20 9 9 11 8 14 9 11 10 11 13 11 15 15 16 6 4 6 5 4 5 5 7 10 3 2 3 5 5 5 5 6 9 12 14 14 14 15 16 16 16
24 21 22 26 43 37 37 34 41 40 36 21 20 9 13 15 12 11 15 15 13 11 8 11 10 7 14 7 8 4 7 5 7 6 3 5 5 3 2 2 3 5 7 9 10 12 14 15 18 19 20 20 21 20
25 23 24 33 36 37 31 42 33 38 29 26 12 20 23 21 15 16 12 15 15 14 15 12 10 7 8 5 9 8 5 5 5 6 5 5 4 5 7 8 9 10 11 12 15 17 19 19 20 21 21 21 21 20
24 23 27 32 38 33 40 26 27 17 10 12 17 19 21 18 14 12 11 12 15 19 16 10 7 8 7 7 8 11 14 9 8 6 4 4 6 8 9 10 12 13 14 17 18 18 18 18 18 18 18 18 19 20
23 23 27 39 36 28 29 29 22 11 14 17 19 18 16 15 12 13 12 11 14 18 19 16 6 15 7 9 10 16 15 10 9 9 7 8 9 11 12 13 14 15 16 16 16 15 14 14 14 15 15 16 17 18
22 24 28 27 30 22 31 25 15 9 15 14 14 13 14 14 12 11 13 12 14 15 17 12 10 9 14 8 7 1 1 9 12 13 14 14 12 12 13 14 13 13 13 13 12 12 12 12 12 13 13 14 16 17
19 21 27 19 24 24 17 19 13 12 15 16 13 11 8 10 11 9 11 12 13 17 20 19 14 11 13 14 10 8 6 8 10 12 14 14 14 14 13 11 9 9 9 10 11 11 11 11 12 13 14 14 15 16
25 27 22 24 22 20 17 18 13 10 13 16 11 11 13 13 14 13 12 14 15 18 19 18 16 15 11 11 11 12 12 13 13 10 10 12 13 11 8 8 7 8 9 10 10 10 11 12 13 13 14 14 15 16
29 25 21 18 16 14 15 14 12 12 11 11 12 11 10 13 15 14 13 14 14 14 14 15 17 20 21 18 16 15 14 13 12 12 13 12 9 7 7 7 8 9 9 8 9 10 11 12 13 14 15 15 15 16
25 21 18 16 9 7 14 9 8 10 9 12 12 14 14 14 14 13 14 16 17 15 17 17 17 19 20 18 16 14 13 13 13 13 12 9 8 6 7 8 7 8 8 8 10 11 12 13 14 14 14 15 15 15
18 11 7 3 3 5 15 9 10 10 9 14 15 13 13 15 14 15 18 13 9 10 14 17 18 19 18 17 16 15 14 14 14 12 10 8 7 7 7 7 6 7 8 9 11 12 13 14 15 15 15 16 16 16
6 4 4 4 3 6 10 12 10 9 9 12 12 10 8 10 12 15 14 9 9 12 13 15 16 17 17 16 17 17 16 15 13 11 9 8 8 7 6 6 7 8 9 10 12 13 14 15 16 16 16 17 17 17
4 2 3 3 4 5 5 5 5 5 5 6 7 8 8 10 10 6 5 5 9 14 18 17 17 18 18 17 16 16 16 15 13 11 10 9 8 7 6 6 7 8 9 11 12 13 14 15 16 16 17 17 17 18
2 2 4 7 7 7 8 7 6 6 6 4 2 1 3 3 2 2 1 2 3 8 9 15 18 19 20 20 19 18 18 16 14 11 10 10 8 7 7 6 7 8 9 10 12 13 14 15 15 16 16 16 16 17
4 4 6 7 8 6 7 7 6 4 4 3 3 2 1 2 2 6 9 10 9 7 8 12 15 18 20 21 21 21 19 16 14 13 11 10 9 8 7 7 7 8 10 12 13 14 15 15 16 15 15 15 15 15
7 6 6 7 8 6 5 1 3 6 6 6 7 7 8 8 11 11 10 10 11 10 10 10 14 17 18 20 22 21 20 18 16 15 14 12 10 9 8 8 8 9 10 11 13 13 13 14 14 14 14 14 14 14
17 11 10 9 12 14 15 14 16 16 14 14 14 14 14 14 15 14 14 13 12 12 11 10 13 15 16 17 19 19 19 18 18 16 14 13 11 10 9 9 9 9 10 11 12 12 13 13 13 13 13 13 14 14
16 16 16 16 16 15 16 17 18 18 19 19 20 21 20 20 19 18 17 16 15 14 14 14 13 15 18 20 21 22 22 21 20 18 17 15 14 12 11 10 10 10 10 11 11 12 12 13 13 13 13 13 14 15
13 14 14 16 17 18 18 18 18 19 19 19 18 18 18 19 21 22 20 20 20 18 17 18 17 17 20 23 26 27 27 25 23 21 19 17 16 14 13 11 11 11 11 11 11 12 12 12 13 13 13 14 15 17
20 21 21 21 22 23 22 22 23 23 23 21 20 19 19 19 22 22 20 19 19 18 19 23 24 24 24 27 28 28 27 26 24 21 20 19 17 16 14 12 11 11 11 12 12 12 12 13 13 14 15 16 18 19

GFSWCAN_700_spd_135.txt.gz
Wind_Speed
8 23 20 10 10 13 15 17 15 19 26 30 37 24 28 20 30 25 24 22 35 35 32 32 31 31 31 24 26 24 21 20 17 15 14 9 8 14 11 14 12 16 11 9 10 7 5 9 7 6 12 16 16 17
8 24 22 15 13 13 15 13 19 17 24 27 29 29 28 26 22 23 25 26 19 36 37 32 29 26 23 18 18 20 21 14 18 16 13 11 9 15 14 12 16 14 11 9 9 6 8 8 10 11 15 15 16 17
11 21 25 19 17 15 13 12 17 23 26 27 27 21 25 23 22 23 26 25 30 33 34 30 27 21 19 17 15 16 20 17 19 17 15 11 8 14 13 15 15 17 12 13 12 13 13 11 13 14 13 13 15 17
10 20 28 21 18 17 16 15 16 21 23 24 24 26 26 24 23 19 21 20 22 32 28 26 23 21 19 15 12 12 12 13 16 15 14 10 11 11 14 10 15 15 14 15 17 17 16 17 15 12 13 14 14 17
8 20 24 28 23 19 18 16 17 19 22 24 25 24 23 23 21 23 22 22 18 21 30 28 22 16 16 15 12 12 14 15 14 14 12 11 11 8 10 13 14 14 15 16 17 16 17 17 15 14 13 13 15 19
11 16 23 30 27 23 21 18 24 23 22 26 29 26 25 23 23 24 24 24 27 12 30 23 18 18 16 15 14 13 13 14 14 14 13 12 10 10 5 6 3 5 7 10 11 12 13 13 13 13 14 13 15 20
12 13 26 24 31 25 22 21 23 26 23 21 23 23 23 22 21 22 21 25 29 19 24 22 18 17 15 12 11 11 11 11 12 12 12 9 10 11 10 9 5 7 9 11 13 13 12 11 11 14 14 15 17 21
20 17 24 32 28 17 14 22 23 29 23 27 27 25 23 22 18 18 22 23 23 19 22 12 14 19 16 14 11 10 9 9 10 10 11 10 9 7 4 4 1 4 8 11 13 12 13 12 12 13 14 18 22 24
20 21 25 30 26 21 14 20 26 28 28 28 27 24 22 21 18 21 21 23 22 13 8 12 23 20 17 13 10 9 9 9 9 10 8 7 8 6 4 3 5 7 7 8 7 7 7 9 12 15 18 21 22 21
21 24 28 30 28 22 20 21 30 28 26 26 24 23 21 19 18 20 19 17 14 8 6 16 18 17 20 15 11 9 8 7 5 7 6 7 8 5 5 6 8 9 9 9 9 10 11 13 15 18 18 17 17 16
21 23 27 32 37 29 25 28 28 29 29 26 25 22 22 19 19 13 10 7 7 6 10 16 12 19 19 14 14 6 6 5 4 4 4 3 2 4 5 7 9 7 5 6 7 9 11 14 15 15 15 13 12 13
24 25 26 29 38 36 35 30 27 26 30 26 23 24 23 18 8 6 9 8 6 6 14 16 15 17 19 15 7 5 4 5 3 5 3 3 2 4 6 6 4 6 6 7 9 11 12 13 12 12 12 13 13 14
22 27 28 28 31 32 28 31 30 21 27 26 20 21 16 5 5 7 7 8 8 14 16 17 18 17 16 9 6 5 4 4 4 4 3 4 3 7 5 4 5 6 6 8 8 8 8 8 10 12 13 13 14 15
21 24 29 30 32 33 32 24 24 28 33 19 14 13 7 5 5 7 12 12 14 17 16 16 17 14 13 9 6 4 5 5 5 5 4 3 3 4 4 3 1 0 1 2 4 7 9 11 12 13 15 16 17 17
20 21 28 29 34 31 30 33 31 39 33 22 11 8 10 12 12 10 12 12 13 13 11 12 13 8 14 6 6 6 7 5 7 5 4 2 2 4 4 3 1 3 5 7 8 10 12 15 16 17 18 18 18 18
20 21 25 32 37 25 28 27 25 29 26 18 8 14 18 16 12 11 15 16 13 12 14 13 10 7 8 5 8 6 6 5 5 6 4 2 2 2 1 2 5 7 9 10 12 15 17 17 16 16 15 15 15 15
18 20 25 36 38 28 31 32 29 25 18 14 15 15 19 17 11 13 15 15 13 13 14 7 7 7 6 6 7 11 12 5 3 4 3 3 3 3 5 6 9 10 12 14 15 15 14 14 14 14 14 14 14 14
17 18 24 36 27 31 26 25 27 9 17 23 17 16 20 19 17 16 15 14 13 14 15 11 7 10 6 7 10 14 15 15 10 8 7 6 4 7 8 9 10 13 13 12 12 12 12 13 13 13 14 15 15 16
15 20 31 28 24 32 24 23 18 16 21 25 24 20 20 19 16 14 13 13 13 15 19 18 9 9 10 10 6 2 5 12 11 10 10 9 12 11 10 11 12 12 10 10 10 11 12 12 13 13 14 15 15 16
17 22 37 23 19 30 17 15 19 19 22 24 22 19 16 16 15 14 14 14 14 16 17 21 17 11 10 8 11 6 3 3 5 7 10 11 13 13 11 12 11 9 9 9 10 11 11 11 12 13 13 14 15 16
22 21 20 19 23 20 16 14 12 16 18 16 16 13 11 9 11 13 12 13 14 16 18 18 16 10 10 14 17 13 9 8 9 10 11 10 10 12 12 9 7 7 8 8 9 10 10 11 12 13 14 14 15 16
26 29 24 20 19 14 14 14 10 14 13 15 11 8 9 12 13 16 15 15 17 15 12 11 15 15 17 15 13 13 12 12 12 11 11 11 12 10 8 7 7 7 8 8 8 9 10 12 13 13 14 15 15 16
23 21 20 16 13 6 10 11 9 8 8 11 12 12 12 11 14 14 15 15 14 11 12 13 15 16 20 22 23 19 16 14 13 12 12 12 10 8 7 7 6 7 7 7 8 9 10 12 13 14 14 14 15 16
20 17 13 7 6 5 15 13 12 11 12 13 16 13 11 12 11 14 17 15 14 13 14 15 18 19 18 18 19 18 17 15 14 13 12 10 9 8 7 7 7 7 6 7 8 9 10 12 13 14 14 15 15 16
9 6 4 4 4 9 13 13 12 13 9 11 11 10 8 10 12 16 16 11 8 10 12 12 15 17 19 19 19 18 17 16 15 14 12 11 10 9 8 8 7 6 6 7 8 9 11 12 13 13 14 14 15 16
1 2 4 7 6 8 9 11 11 12 10 10 9 11 10 8 7 4 3 4 7 10 13 13 13 15 17 17 17 17 16 17 15 14 13 13 11 10 9 8 7 6 7 7 8 10 11 12 12 13 13 14 15 15
1 1 4 6 7 9 10 10 10 10 8 4 5 6 5 4 3 3 1 2 3 5 9 11 16 19 20 20 21 20 18 17 17 18 16 14 12 11 10 9 8 8 8 8 9 10 11 12 12 13 13 13 13 14
3 1 4 8 10 11 11 12 10 6 6 5 4 3 2 3 4 2 5 7 9 8 7 6 10 14 17 20 21 21 19 18 17 17 17 15 13 12 11 10 9 9 8 9 10 11 11 12 12 12 12 12 12 13
4 3 5 8 7 7 5 6 6 4 3 3 2 2 2 4 8 10 10 11 11 11 10 10 10 12 15 16 17 19 20 20 20 19 19 17 15 14 12 11 10 9 9 9 10 11 12 12 12 12 12 12 12 12
14 8 6 5 5 6 8 8 9 11 12 11 9 9 11 12 14 16 16 15 15 14 13 12 11 11 13 16 17 17 18 20 23 24 21 18 17 15 14 13 12 11 9 10 11 12 12 12 13 12 12 12 13 13
15 16 20 20 19 15 14 14 14 14 14 15 15 15 15 17 18 20 20 19 18 17 16 15 14 14 12 14 17 19 19 21 22 21 19 19 18 19 17 16 14 12 11 10 11 12 12 13 13 13 12 13 13 14
14 13 13 14 14 14 14 15 16 17 17 17 17 18 18 19 20 19 18 18 18 19 19 19 18 17 18 19 21 24 25 27 26 25 25 24 22 20 19 18 16 14 13 12 12 11 12 13 13 13 13 14 14 15
11 12 14 16 18 20 20 21 23 23 24 24 24 24 23 23 23 24 21 20 18 17 18 19 21 24 24 24 25 26 27 26 26 25 24 23 22 21 20 19 18 17 15 13 12 12 12 13 14 14 15 15 16 17

GFSWCAN_700_spd_138.txt.gz
Wind_Speed
8 18 11 9 9 6 3 7 10 27 25 25 26 24 20 19 20 15 18 22 29 43 50 42 43 44 43 39 44 43 36 28 25 19 17 9 8 12 11 14 19 16 15 14 14 13 10 12 9 6 8 12 13 15
6 20 13 10 10 9 6 10 18 24 33 27 29 35 36 30 28 25 39 32 41 51 46 38 37 34 32 31 36 40 25 29 23 18 13 13 10 16 14 13 17 13 12 11 12 10 10 10 8 8 10 12 12 13
11 20 15 11 12 10 9 12 21 34 28 30 29 36 31 30 26 30 35 38 42 47 40 34 33 34 30 27 23 24 23 22 24 24 19 17 11 16 13 9 18 17 20 11 12 12 12 14 14 13 13 11 11 12
13 24 18 14 11 8 9 15 19 24 26 27 28 28 27 27 26 26 28 35 34 47 47 38 30 27 24 22 18 15 14 18 17 19 17 15 13 16 14 10 12 15 17 16 14 13 14 16 18 16 14 13 11 12
16 25 21 17 14 12 11 17 21 25 25 26 29 30 28 28 26 27 36 34 36 30 46 37 30 28 23 18 17 16 16 15 17 19 16 15 14 14 13 12 9 14 14 14 11 15 15 15 15 14 13 13 13 13
15 29 23 17 17 14 15 16 19 25 27 27 23 23 26 29 28 27 31 29 30 23 39 33 27 23 20 17 15 15 16 16 16 18 15 13 12 9 7 6 9 11 12 12 12 12 11 12 11 12 11 12 14 16
19 32 26 22 16 15 21 19 17 19 25 26 26 27 27 28 29 28 27 25 21 25 34 25 16 19 17 14 12 13 13 13 14 14 13 11 11 9 7 6 8 8 9 9 10 11 11 10 10 10 13 14 15 18
21 27 31 27 23 20 22 21 20 21 26 25 23 23 21 22 23 21 22 25 24 22 23 13 18 16 14 15 15 13 14 14 14 12 11 11 10 9 4 8 8 7 8 9 10 10 10 10 13 14 13 15 18 21
20 26 34 28 22 20 23 25 22 23 24 28 25 25 22 21 25 28 27 26 18 16 10 15 18 15 17 16 16 16 14 13 13 12 13 12 10 5 11 10 8 7 7 6 6 7 8 9 9 12 14 18 19 18
19 28 36 26 22 22 23 24 22 27 26 28 29 26 27 27 27 27 25 23 13 10 11 23 22 21 21 20 16 11 11 8 7 10 10 7 8 10 10 9 9 7 6 8 10 10 9 11 12 13 15 15 15 14
22 32 37 27 26 21 27 26 27 28 26 25 24 26 27 28 26 18 10 7 7 7 15 20 13 25 21 14 16 8 7 6 4 7 7 6 7 11 11 8 7 8 7 8 8 8 8 10 12 12 12 11 12 13
27 31 32 28 25 24 24 28 26 24 24 22 22 26 28 16 8 7 9 8 7 7 20 18 20 22 21 18 8 8 5 6 3 10 6 3 9 9 7 6 5 8 9 7 7 7 9 10 9 8 9 10 11 12
25 30 34 29 31 27 28 29 27 23 20 20 23 20 8 5 5 5 5 7 8 19 21 21 23 22 17 8 7 5 4 4 9 6 4 7 7 5 8 8 8 8 8 6 4 3 3 5 7 9 11 12 14 15
26 29 35 32 32 32 32 31 30 29 24 22 11 7 4 4 5 11 13 13 18 21 21 20 21 13 13 8 6 4 6 7 5 4 4 8 3 5 8 8 7 5 4 2 1 4 5 7 10 13 15 16 16 15
26 29 29 28 27 24 26 32 30 32 28 15 9 5 5 14 20 20 18 20 22 20 18 18 13 11 13 5 5 5 7 4 6 5 9 8 8 8 9 8 6 4 1 2 5 7 9 12 13 13 13 13 13 13
24 29 28 26 28 24 24 24 24 30 22 10 6 9 14 18 20 20 19 18 17 18 17 14 9 6 6 5 6 5 6 4 5 12 11 6 8 8 6 4 2 1 3 5 7 9 10 10 10 10 10 11 11 11
18 27 33 30 25 29 24 25 22 26 12 12 16 19 15 15 12 11 16 16 14 13 13 6 6 5 6 5 6 8 6 9 10 11 6 6 7 6 3 1 3 4 5 8 8 8 8 8 8 9 10 11 11 12
17 21 29 34 25 23 24 27 19 8 14 19 20 20 17 14 10 13 18 15 12 10 9 7 6 8 5 5 7 12 14 10 8 8 6 6 6 3 3 4 5 6 8 7 6 6 7 8 9 10 10 11 12 12
16 21 34 33 21 23 24 23 20 12 14 17 16 15 18 18 17 17 15 12 10 10 11 9 5 9 6 8 0 0 8 15 11 8 7 7 6 6 6 7 7 8 6 5 6 7 8 9 10 10 11 12 12 13
20 25 35 28 24 28 19 18 18 13 14 16 15 17 19 20 19 17 15 14 13 14 15 14 13 7 5 5 7 5 2 5 10 11 8 8 8 8 9 7 8 7 5 5 7 8 8 9 10 11 12 12 13 13
30 31 27 31 20 22 18 16 12 15 21 25 24 22 19 16 15 14 13 14 17 19 18 14 10 12 8 12 11 11 9 5 7 5 6 8 8 7 8 9 7 5 5 6 7 7 8 8 10 11 12 13 13 14
25 21 30 26 22 20 18 18 18 22 17 23 21 18 15 13 12 12 13 15 16 14 10 8 9 15 14 11 12 15 12 10 8 8 9 9 9 9 9 8 6 6 7 6 6 7 7 8 9 10 11 12 13 14
21 20 20 19 16 9 14 15 20 18 13 17 15 13 12 11 12 13 17 19 17 11 10 10 11 14 17 18 18 16 15 12 12 12 12 11 11 10 9 8 8 8 7 7 7 7 7 8 9 10 12 13 13 14
21 19 16 7 7 6 19 15 16 14 13 17 14 11 9 10 10 13 16 14 10 11 13 14 16 17 18 18 21 21 20 19 16 14 13 12 12 11 10 9 9 8 8 8 7 7 7 8 9 11 12 12 13 14
15 7 6 7 6 13 16 15 14 12 9 9 9 10 9 10 11 13 13 11 10 12 14 16 16 17 19 20 18 17 17 17 16 16 15 14 13 12 11 11 10 9 9 9 8 7 8 8 10 11 12 13 13 14
3 3 5 6 8 12 11 14 11 10 10 9 10 13 11 9 7 5 6 7 8 11 13 14 14 14 16 18 19 19 18 18 18 17 15 15 15 14 13 12 11 11 10 9 9 8 8 9 10 11 12 13 13 14
2 1 3 6 7 8 11 11 11 12 13 10 12 11 10 6 5 7 7 5 3 3 5 9 12 15 16 18 19 19 19 19 18 18 19 18 17 15 15 14 13 12 11 10 9 9 9 10 11 11 12 13 13 13
3 2 2 7 9 10 11 12 11 9 7 9 9 6 6 7 8 9 5 4 5 5 5 5 6 10 14 19 20 21 21 21 20 19 18 18 18 17 17 16 15 13 12 11 11 10 9 10 11 12 12 13 13 13
5 2 3 7 11 12 12 11 9 10 8 5 4 4 6 7 6 7 8 8 9 9 9 8 9 9 10 14 16 18 20 21 21 20 18 19 19 19 19 18 17 15 15 14 13 12 10 10 11 12 13 13 13 13
10 5 2 5 7 6 5 5 5 5 5 5 5 7 8 9 11 12 13 14 13 13 12 12 11 11 11 12 15 17 18 18 20 22 24 24 23 23 22 20 19 18 17 16 15 13 13 11 11 12 12 13 14 14
13 13 14 13 12 10 10 11 12 13 12 11 11 12 13 15 15 15 15 15 16 16 16 16 15 14 13 13 13 15 18 19 21 22 21 22 22 21 21 21 21 20 19 18 17 16 15 13 12 12 12 13 14 15
15 15 15 14 12 12 12 13 13 13 13 14 14 15 16 18 20 21 19 17 15 14 15 16 18 18 17 17 17 18 20 23 24 24 23 24 24 25 24 23 22 22 21 20 19 17 15 14 13 13 13 14 15 16
12 12 12 12 12 12 13 14 17 19 20 20 21 22 23 23 24 24 22 21 19 18 17 16 16 17 19 20 21 21 22 22 22 22 23 25 26 26 24 24 23 22 22 21 19 18 16 15 13 13 14 15 15 16

GFSWCAN_700_spd_141.txt.gz
Wind_Speed
7 12 9 4 2 4 5 9 16 15 16 15 7 14 26 28 39 61 66 61 57 43 48 45 46 55 48 47 53 50 46 33 36 27 23 15 14 24 15 18 23 20 18 18 19 16 13 14 10 9 10 9 11 16
6 13 8 4 2 3 8 21 19 12 13 14 8 13 8 7 38 25 27 44 37 34 45 48 52 51 49 49 51 49 34 43 25 24 15 18 14 17 19 17 16 14 13 16 12 15 13 6 7 16 15 12 15 15
9 15 9 6 2 6 8 13 15 20 28 29 23 16 12 10 17 20 13 28 30 33 42 38 44 38 36 38 40 51 24 34 26 19 18 12 12 17 17 12 18 11 21 13 13 11 9 12 14 12 13 14 16 16
12 15 9 7 3 7 11 22 24 28 31 29 31 28 32 29 24 24 33 36 34 51 45 37 38 30 31 31 32 22 24 30 20 21 22 17 12 18 13 10 16 15 20 16 9 10 12 8 10 13 15 14 16 14
17 17 10 7 6 9 16 20 22 27 36 30 29 32 31 30 32 42 44 42 44 29 51 38 34 29 27 28 29 22 16 19 24 21 18 15 15 14 12 14 16 14 22 15 14 11 10 7 9 11 14 13 14 14
23 19 11 8 10 12 18 25 25 31 32 29 29 32 28 26 24 32 46 33 30 47 48 44 34 27 26 24 26 26 23 22 18 24 22 18 18 10 11 9 11 17 14 16 17 18 16 16 12 12 11 11 12 14
26 20 16 11 14 16 16 21 25 31 35 32 26 26 19 29 27 31 33 30 40 43 47 30 27 31 27 24 22 22 23 22 18 22 13 15 17 12 9 6 11 11 10 10 10 10 10 10 9 9 9 11 13 15
28 21 14 13 17 18 17 19 23 27 29 29 33 28 25 21 18 28 29 34 38 34 30 14 24 25 26 21 22 22 21 19 19 15 14 12 15 11 5 12 12 8 7 6 8 9 7 8 10 11 12 12 14 18
29 24 17 17 20 19 20 20 24 27 27 30 31 30 25 24 27 28 29 24 19 14 12 21 20 19 23 22 20 18 16 17 14 10 12 11 12 5 12 14 11 7 8 6 5 5 6 8 8 8 10 13 17 18
33 27 25 18 18 21 21 22 23 22 25 26 24 25 27 22 24 29 23 19 13 13 16 25 24 22 19 24 20 14 12 8 7 7 15 10 8 11 15 12 11 8 7 6 6 6 6 6 8 11 13 15 15 13
34 30 23 22 20 18 20 24 23 30 29 24 25 32 34 31 25 18 12 9 8 9 16 19 17 26 20 20 19 9 8 7 5 8 7 6 6 15 14 11 9 9 7 6 3 4 7 9 9 11 12 11 10 11
39 33 29 30 24 23 23 23 24 25 23 27 33 33 30 19 8 7 9 8 7 7 18 22 20 20 24 15 8 9 6 6 4 11 7 8 12 13 13 12 8 9 9 5 5 6 8 9 8 6 7 9 11 13
36 32 30 28 29 25 24 24 23 22 26 32 28 20 9 4 5 5 5 7 8 25 26 25 23 24 17 10 9 6 4 4 15 6 6 9 13 13 12 12 11 9 7 6 6 6 4 3 5 7 10 13 15 16
34 33 31 28 28 29 25 24 23 23 27 18 7 6 4 5 7 11 12 20 25 25 26 23 22 14 14 8 6 5 8 8 5 5 5 12 13 11 12 12 11 8 7 6 5 3 4 5 8 11 12 12 12 12
28 30 30 29 28 31 28 24 24 22 19 11 5 6 10 21 19 20 23 26 26 24 25 18 13 13 10 6 5 6 6 3 5 6 11 13 10 11 12 13 11 9 6 4 3 4 5 7 9 9 9 9 9 10
26 30 27 29 26 27 27 28 23 22 14 8 8 19 24 22 23 23 24 24 24 22 18 15 10 7 4 6 4 4 6 4 7 12 14 12 12 13 12 10 8 5 3 2 4 4 5 6 7 7 8 9 10 11
22 26 28 27 27 26 26 27 26 18 8 9 17 22 24 23 23 22 21 20 18 17 14 7 5 3 6 4 4 6 6 8 12 17 13 12 12 10 9 8 4 2 2 4 4 4 5 5 7 8 9 10 10 11
20 22 25 22 25 24 29 25 27 11 11 15 17 18 19 19 17 16 17 16 15 12 7 5 4 5 5 4 5 8 8 11 15 13 10 9 10 10 7 4 3 3 4 5 4 4 4 6 7 8 9 10 11 12
21 25 22 26 24 23 24 21 15 11 19 15 17 17 16 13 12 15 16 14 10 7 5 4 3 5 6 5 5 5 13 14 11 10 8 9 9 7 4 4 5 6 6 5 4 4 4 6 7 8 9 10 11 12
18 28 22 19 23 23 13 15 16 13 19 16 15 15 15 14 14 16 15 13 10 8 5 3 4 6 6 7 6 4 5 13 15 12 9 8 7 7 7 7 6 7 6 6 5 4 5 6 7 8 9 10 11 13
18 30 26 24 22 17 11 16 14 12 15 17 17 16 16 17 17 17 15 13 12 10 8 7 5 7 9 7 9 8 5 5 10 12 10 8 8 9 8 7 8 8 8 7 6 5 5 6 6 7 8 10 11 13
25 34 23 22 19 15 12 14 14 16 17 20 17 16 17 17 17 15 12 13 12 11 8 7 8 10 14 11 10 11 11 8 8 8 6 6 8 9 9 9 9 9 9 8 7 6 6 6 6 7 8 9 11 12
23 21 19 17 14 7 13 16 17 16 14 22 20 17 16 15 14 12 11 12 13 10 9 10 10 12 15 15 12 12 13 12 12 10 8 8 9 10 10 10 11 11 10 9 8 7 7 7 7 7 8 10 11 12
27 22 17 8 5 5 18 18 18 16 16 21 19 14 13 12 9 11 12 14 10 10 12 13 13 12 12 14 17 16 16 17 16 15 14 13 11 12 12 12 12 12 11 10 9 9 9 9 9 9 9 10 11 12
16 8 5 6 6 12 15 15 16 15 13 17 15 13 9 9 10 12 11 10 10 12 13 14 15 16 17 18 19 19 20 22 21 19 16 15 14 13 13 13 14 13 12 11 11 11 10 10 10 10 10 11 12 13
3 3 4 6 7 11 13 15 14 13 12 13 13 12 11 10 9 6 11 13 13 14 15 16 16 17 18 18 19 20 19 18 19 18 17 16 16 16 15 16 15 14 14 13 13 12 12 11 11 10 11 12 13 13
1 2 6 8 9 10 14 16 14 15 14 10 12 11 11 7 8 10 12 10 7 8 9 11 14 16 17 17 18 20 20 21 21 20 19 19 19 18 17 17 17 17 16 16 15 14 14 13 13 12 11 12 13 14
2 2 3 7 10 11 12 13 13 12 12 12 12 12 8 10 11 12 12 10 8 6 5 6 6 10 14 17 17 19 20 20 21 21 22 20 19 18 19 20 19 18 19 18 17 17 16 15 14 13 13 13 13 14
6 5 4 7 9 11 11 11 9 10 9 11 11 10 9 9 8 13 10 7 7 6 6 6 6 8 10 12 16 20 21 22 23 23 22 22 20 19 20 22 22 22 20 20 20 19 18 18 17 16 14 14 14 14
5 4 3 7 8 10 11 10 9 6 4 3 2 4 6 7 8 9 10 10 11 11 11 11 10 9 10 11 13 15 19 21 22 22 23 23 24 23 24 25 24 24 23 22 22 21 21 20 19 18 16 15 15 16
8 7 7 5 4 5 7 5 4 7 9 10 10 10 9 11 12 13 13 13 12 12 12 13 14 14 13 13 13 15 16 18 20 21 22 22 21 22 23 25 25 24 23 23 23 23 22 21 20 19 18 16 16 17
13 13 12 12 12 12 14 16 14 13 12 12 13 14 14 16 16 16 16 16 16 15 13 13 13 14 15 16 15 15 15 17 19 21 23 23 23 24 24 24 24 23 23 23 23 23 23 22 21 20 19 17 17 17
12 13 14 14 14 14 14 13 13 14 15 16 17 18 20 21 22 22 20 20 19 18 18 17 16 16 15 15 16 17 17 17 18 19 19 20 21 22 23 24 24 23 23 23 23 22 22 21 20 19 19 17 18 17

GFSWCAN_700_spd_147.txt.gz
Wind_Speed
23 22 14 10 8 8 13 17 20 24 22 25 29 34 39 42 51 61 72 64 65 57 47 52 51 55 31 38 38 33 38 42 39 28 33 18 12 22 17 20 29 32 26 26 26 16 12 11 18 18 14 11 15 16
21 12 8 8 7 9 14 18 14 16 22 23 27 30 40 38 44 56 69 71 64 58 48 34 40 50 52 37 34 39 42 35 37 32 16 27 13 22 24 18 28 27 30 25 23 23 7 17 16 18 13 13 16 12
10 6 7 8 6 9 7 6 11 13 17 19 22 14 11 21 28 49 69 67 63 66 59 47 34 39 52 52 44 42 43 36 40 43 27 20 21 23 21 18 32 31 27 21 17 19 23 19 15 12 12 11 11 11
6 4 4 4 3 3 2 7 9 7 9 7 12 17 5 5 11 35 69 72 60 63 47 39 47 41 39 44 44 44 44 40 44 39 29 24 22 26 22 13 28 29 24 25 13 21 23 19 15 13 8 7 12 16
2 6 5 2 5 1 4 4 5 7 11 10 22 20 7 8 27 29 41 60 63 53 42 29 35 46 42 36 38 44 49 47 41 37 32 27 26 22 21 18 25 19 27 21 29 27 19 17 12 9 4 7 10 9
10 9 4 4 9 7 9 4 12 14 16 22 22 22 21 15 22 45 43 34 58 55 34 27 32 35 36 36 34 40 41 43 47 32 28 29 21 15 18 8 25 25 28 21 25 24 18 13 8 4 6 7 6 6
13 9 5 10 10 7 22 18 15 14 23 31 28 32 31 30 28 36 52 60 54 56 30 31 26 27 22 25 23 26 29 26 26 25 20 27 20 17 12 10 18 19 24 24 16 17 15 11 7 8 7 6 6 7
12 9 10 13 12 10 23 26 24 21 19 16 25 23 25 39 38 29 41 47 46 36 34 16 28 31 31 31 33 31 26 28 22 21 21 21 19 15 7 10 15 16 19 22 20 17 14 12 11 9 7 8 9 9
10 10 13 14 15 14 20 22 22 25 20 23 24 26 27 40 50 43 43 39 36 27 15 28 37 35 36 38 39 34 28 24 17 19 21 19 18 9 14 17 14 18 19 20 20 16 13 11 9 7 7 7 6 7
11 12 12 15 20 19 23 23 24 21 20 28 30 38 41 40 36 38 33 30 29 27 31 38 29 44 42 42 34 21 16 12 22 22 15 15 16 10 10 14 18 19 15 15 15 13 11 9 8 5 4 4 6 7
11 11 11 15 19 24 23 24 24 22 18 21 34 33 33 35 26 18 10 13 12 19 22 28 36 39 31 30 27 12 12 11 8 17 10 11 21 19 17 16 16 15 15 14 13 11 9 7 5 1 1 3 5 7
14 12 12 18 18 22 23 23 24 22 21 28 29 25 16 10 8 7 9 8 11 10 25 25 30 28 28 26 18 17 10 7 6 17 9 14 27 26 24 20 18 14 12 11 10 8 7 5 3 2 1 4 7 10
16 18 20 22 26 23 21 18 16 20 20 26 19 9 6 5 6 4 7 11 14 33 32 31 33 31 28 21 19 8 5 5 25 8 11 10 33 30 24 20 16 14 13 10 8 7 6 5 3 1 4 6 8 8
18 20 20 23 24 29 30 33 31 28 22 10 5 6 4 6 6 5 9 21 32 34 31 28 30 23 20 14 7 6 12 13 5 8 11 20 25 28 24 19 14 11 12 12 10 8 6 3 2 3 4 5 6 6
21 24 27 24 34 36 31 26 12 7 9 7 5 7 16 18 15 14 23 31 31 29 29 29 26 22 13 8 6 8 7 5 5 7 14 20 25 25 23 18 14 13 14 13 11 8 5 4 3 3 3 4 4 5
26 25 24 23 29 30 22 13 12 14 23 16 20 30 26 30 32 32 31 31 30 29 28 25 19 10 8 6 5 4 6 4 8 11 15 23 24 21 18 16 16 16 16 12 8 7 6 5 3 3 3 2 4 6
23 22 25 23 20 18 12 7 13 27 14 18 17 19 36 36 35 31 26 23 22 20 22 16 6 5 9 5 5 7 6 8 11 15 20 19 15 17 19 20 20 17 12 9 7 7 7 5 4 3 2 2 4 5
19 18 21 21 20 16 12 10 27 25 29 27 31 31 29 31 28 24 25 20 18 17 16 15 12 11 6 7 7 8 8 11 15 20 18 18 20 21 21 19 16 12 10 7 6 8 7 6 4 3 2 1 3 4
17 16 19 18 16 16 19 20 22 26 27 29 29 28 24 25 23 22 18 18 18 15 16 13 8 10 11 10 9 9 10 13 18 19 19 21 20 18 18 15 12 9 8 7 7 9 8 6 6 4 2 2 2 3
13 17 14 17 15 17 12 14 21 16 22 23 22 20 19 18 17 15 12 11 12 12 18 17 15 13 12 10 8 9 12 18 15 16 18 19 18 17 15 12 10 9 8 7 7 9 8 7 6 6 4 3 4 3
15 14 15 17 15 15 11 12 14 16 16 15 15 14 15 13 11 11 10 7 6 10 14 13 10 8 7 8 8 8 13 16 16 13 10 12 14 13 11 9 9 8 8 8 9 10 9 8 7 7 6 6 6 6
13 15 16 15 15 12 10 12 11 13 10 14 12 10 8 8 7 7 7 5 7 8 7 6 4 2 3 4 7 6 7 14 15 14 14 13 12 10 9 9 9 9 9 9 10 11 11 10 9 10 8 8 9 9
16 14 11 11 7 5 9 12 14 13 9 12 10 8 8 7 9 9 7 6 4 4 3 2 1 1 3 6 9 9 9 9 10 15 16 14 12 9 7 9 9 10 10 11 12 12 11 11 12 12 11 11 10 11
17 19 15 5 7 5 15 14 12 12 10 12 11 9 8 8 9 9 10 9 7 6 6 6 6 6 6 7 10 12 11 12 12 14 14 13 11 8 7 9 10 11 12 13 13 14 12 13 14 13 13 14 13 13
18 8 7 8 8 11 12 13 15 15 13 14 13 12 11 10 10 9 8 8 7 8 9 10 10 10 11 11 11 13 14 13 13 16 16 15 15 14 12 12 13 13 13 13 14 14 13 15 15 14 15 15 15 15
6 4 4 6 9 8 7 9 8 9 13 16 15 10 12 10 8 6 12 11 10 10 10 11 12 12 13 14 13 14 14 15 16 18 18 18 18 18 18 16 15 15 14 14 15 15 15 16 16 16 17 17 17 17
5 5 5 8 7 7 11 12 10 9 9 9 13 14 11 6 7 10 11 11 11 11 12 14 14 15 16 17 17 18 20 20 19 18 20 20 19 19 18 16 15 15 15 16 15 16 17 17 18 18 18 19 18 19
5 3 6 7 7 7 10 13 12 11 12 9 12 13 9 9 12 11 9 11 12 12 11 10 10 11 12 14 17 19 19 20 21 19 19 19 18 17 17 17 16 15 17 17 17 18 19 18 19 20 20 20 19 20
7 3 3 5 7 9 8 10 12 11 9 11 12 13 14 15 15 13 13 13 13 12 10 9 8 10 11 11 10 13 16 19 19 19 18 19 19 18 18 18 18 17 18 19 19 19 19 19 20 21 21 20 19 20
5 2 3 5 6 7 9 9 8 10 9 10 10 10 9 9 11 12 11 10 11 9 8 9 10 10 10 10 9 10 11 14 17 18 19 19 20 20 20 20 20 20 20 20 20 20 20 20 21 21 20 20 19 20
4 2 0 2 4 6 7 9 11 11 10 7 4 3 3 3 4 5 6 8 11 12 13 12 11 11 12 12 12 13 12 12 13 15 16 18 19 20 21 20 20 20 19 19 20 20 19 19 20 19 19 19 19 19
5 6 5 4 4 7 8 8 8 8 8 8 9 9 9 9 9 10 11 12 12 13 14 14 15 16 15 15 13 13 14 14 15 14 14 15 16 16 17 18 19 19 18 18 19 20 18 19 19 18 18 19 19 18
5 6 7 9 11 11 11 12 12 12 12 10 10 10 11 12 13 13 14 14 16 17 18 19 19 18 18 17 15 15 15 15 16 16 15 15 15 15 16 16 17 16 17 18 18 18 17 17 17 17 17 17 17 16

GFSWCAN_700_spd_153.txt.gz
Wind_Speed
19 20 22 25 26 26 30 30 30 31 31 29 28 32 36 39 44 46 44 43 48 46 44 43 42 40 39 37 37 34 29 19 23 29 33 29 21 26 24 22 22 25 21 19 17 13 13 12 11 16 18 17 15 10
21 23 24 24 25 28 25 24 22 21 22 23 24 22 24 35 41 46 48 44 42 47 44 40 43 38 36 33 27 20 28 26 16 21 29 19 24 8 25 25 27 23 25 20 17 13 16 13 12 10 13 12 13 13
21 20 20 22 20 20 19 17 18 22 26 30 33 35 33 29 34 48 52 48 47 47 46 46 42 37 36 33 30 30 26 28 21 20 25 26 22 18 12 25 23 27 16 22 19 23 22 18 15 14 14 14 14 11
16 17 18 15 15 13 13 16 18 19 19 20 21 25 30 33 35 39 50 51 53 49 46 40 32 42 19 24 30 36 29 26 26 27 22 24 26 24 20 14 24 25 22 23 25 22 19 15 14 16 19 16 11 8
14 14 11 9 8 11 13 14 16 15 17 21 25 24 29 33 35 35 37 40 47 43 33 44 28 26 29 21 24 31 38 32 28 28 25 24 25 26 24 26 23 25 25 26 25 28 24 18 19 16 15 8 6 8
10 8 5 6 9 9 11 14 11 9 9 11 1 13 26 32 36 36 37 37 42 40 30 24 28 19 20 22 18 20 31 33 29 28 29 31 29 29 17 27 29 27 27 28 25 22 18 14 17 11 9 7 6 9
6 6 6 5 4 4 5 2 8 8 4 5 6 9 20 29 39 47 48 39 43 40 34 24 27 31 25 27 28 23 22 30 35 38 39 33 26 33 31 29 22 23 24 27 22 14 17 14 13 11 8 2 6 6
6 7 3 4 2 3 8 9 3 9 7 11 16 8 1 28 37 43 48 32 44 47 26 9 9 13 32 33 28 30 32 29 26 32 33 35 34 35 26 32 28 21 26 17 13 9 13 18 14 9 5 4 6 5
8 5 5 4 3 6 15 11 6 19 17 23 16 13 20 41 44 44 38 24 40 38 32 23 17 17 23 28 29 26 30 31 25 33 40 31 28 19 21 18 18 19 22 21 16 13 15 11 9 6 5 7 7 6
6 7 7 6 7 12 14 12 18 22 28 18 23 31 35 32 33 30 31 37 45 7 12 20 26 20 32 32 31 21 19 18 10 18 24 15 13 19 13 17 17 19 18 13 16 17 16 11 7 7 9 9 7 6
6 8 8 8 10 12 13 12 19 25 30 28 35 43 46 50 42 27 23 12 23 4 11 20 27 28 34 31 32 14 9 8 7 12 10 11 17 16 18 20 20 18 15 14 11 9 7 5 6 9 10 8 6 4
6 8 11 11 9 9 11 11 11 31 35 41 46 44 42 28 10 8 13 8 12 9 13 21 26 35 35 25 12 10 7 5 4 15 7 10 21 22 22 21 21 19 19 18 17 13 13 14 14 12 9 7 5 3
8 10 14 14 10 6 7 15 27 35 28 27 23 15 8 5 5 8 12 12 10 18 23 27 34 42 29 14 10 6 4 4 12 10 5 9 24 24 19 20 23 24 21 18 18 19 18 16 14 11 9 6 4 3
13 13 15 16 12 9 6 25 24 17 18 13 8 6 4 4 5 8 17 18 20 24 31 36 39 25 20 8 7 5 8 12 7 7 10 15 26 25 21 19 20 23 23 22 21 19 17 15 13 10 7 6 5 4
12 14 15 13 13 10 8 15 16 12 13 9 5 5 7 11 17 16 15 19 31 36 41 31 20 17 11 7 5 6 8 6 9 10 13 16 25 23 24 25 22 21 22 22 20 17 16 14 11 9 8 7 5 3
14 17 20 26 21 17 13 16 11 10 11 7 8 17 13 18 19 22 26 33 36 37 29 22 10 6 5 5 6 5 6 6 8 16 15 18 25 25 25 24 22 21 20 19 18 17 15 11 11 10 8 7 5 4
30 26 20 15 11 10 14 16 15 17 9 12 17 18 25 28 32 33 32 31 26 23 20 12 6 4 7 5 6 5 6 7 10 16 19 21 25 27 26 23 21 19 19 19 17 16 13 11 11 10 9 8 6 6
22 14 10 11 14 11 16 20 22 32 37 33 30 28 27 26 27 26 26 24 19 20 18 6 6 6 4 6 8 6 4 5 12 15 20 27 28 28 25 21 19 16 16 17 16 14 12 13 12 11 9 8 8 7
11 6 7 11 8 20 26 29 32 35 32 26 22 21 21 20 20 21 21 18 18 14 9 8 3 5 5 5 8 6 7 9 13 21 26 27 25 24 23 22 20 17 17 17 14 13 13 14 14 12 11 10 10 8
10 11 10 12 18 22 26 23 31 26 27 24 20 17 18 18 16 15 14 13 13 13 8 5 11 12 10 9 8 7 9 11 15 21 25 26 25 24 23 21 18 19 19 17 13 10 11 13 13 12 12 12 11 10
10 9 10 13 17 24 20 21 19 23 23 20 19 20 21 19 17 14 15 15 15 19 22 18 15 12 9 8 8 9 12 15 13 11 11 16 19 19 19 20 20 18 16 14 12 10 10 14 15 14 14 13 13 13
9 10 8 12 21 22 18 20 22 21 17 22 20 18 18 16 15 15 15 12 18 19 17 14 12 11 11 9 9 10 10 11 13 14 16 15 15 18 19 17 14 13 12 12 12 12 13 15 15 15 15 15 15 14
11 12 12 13 13 8 15 21 19 21 16 17 15 13 12 12 12 13 11 11 13 13 12 11 10 9 8 7 7 7 9 9 11 14 16 16 18 18 16 15 14 13 13 12 14 14 13 14 16 17 17 16 16 16
11 12 11 7 6 6 20 16 16 15 15 16 13 11 11 10 9 7 9 11 10 10 9 8 7 7 7 7 8 8 8 9 12 12 12 14 16 17 16 15 15 14 14 15 15 14 13 14 17 19 18 18 18 18
8 7 5 5 7 13 16 16 16 13 14 14 12 8 10 9 9 7 6 8 8 9 8 6 5 5 6 6 6 7 11 12 12 12 14 18 19 19 18 17 14 14 13 12 13 15 16 16 17 19 19 19 19 20
4 4 7 10 12 15 13 16 14 13 11 12 12 9 11 9 9 4 7 7 8 9 8 8 8 7 7 7 8 9 10 13 15 15 15 15 16 17 18 17 17 16 15 15 16 18 19 18 18 19 20 20 21 21
3 4 9 12 12 16 16 16 13 14 12 9 11 10 10 6 7 8 8 10 12 12 12 10 10 10 10 10 10 11 12 13 14 15 17 18 20 21 21 21 21 22 21 20 20 21 20 19 18 17 19 20 21 21
6 8 10 10 10 11 11 12 12 10 8 8 11 12 8 9 10 10 11 12 10 9 8 9 10 10 11 11 11 12 14 16 17 18 19 19 21 22 23 24 25 24 22 22 21 21 20 19 18 18 19 20 21 21
3 6 8 9 10 11 10 12 12 11 10 10 11 12 10 11 9 11 11 10 10 9 9 10 10 11 11 11 11 13 14 15 16 18 20 22 22 22 23 24 24 23 22 21 21 21 20 20 20 20 20 20 21 20
0 2 6 9 10 9 7 6 7 9 8 8 10 10 10 9 9 10 11 12 12 12 12 11 10 9 9 10 11 11 12 13 14 15 16 16 18 21 22 22 22 21 21 21 21 21 21 21 21 21 20 20 20 20
3 2 5 6 8 9 10 10 11 10 10 9 9 10 9 8 9 9 10 11 12 12 12 12 11 11 12 13 13 13 13 13 13 13 13 14 16 18 19 20 21 21 21 21 22 21 21 21 20 20 20 19 19 18
5 6 4 4 5 9 12 12 12 13 13 12 11 10 8 6 6 6 7 7 8 8 10 12 14 15 15 14 14 14 13 12 12 12 13 14 15 16 17 18 19 19 20 20 20 20 20 20 20 20 20 20 19 18
6 6 7 8 6 7 7 10 11 12 12 12 11 11 11 12 13 12 12 12 12 12 14 15 16 16 17 18 18 18 17 16 15 14 13 13 14 15 17 17 18 18 18 18 19 19 19 19 19 19 19 19 18 17

GFSWCAN_700_spd_159.txt.gz
Wind_Speed
19 17 17 16 16 17 19 20 21 21 21 22 23 25 26 27 28 30 33 32 33 34 37 38 38 36 31 31 32 30 26 27 25 20 16 22 18 19 22 20 21 22 13 14 21 17 19 20 16 26 21 13 16 14
17 17 16 16 17 17 19 20 22 23 24 26 28 29 29 29 30 30 34 35 34 35 32 30 34 33 33 32 31 29 27 21 13 17 22 20 25 11 13 15 20 22 25 19 15 15 17 14 17 14 17 15 16 11
19 18 18 19 20 21 22 23 25 27 28 30 32 32 31 32 33 36 34 34 33 34 37 40 39 32 31 30 29 28 27 23 24 23 23 26 16 20 21 27 23 23 22 26 21 28 28 24 18 15 13 13 15 14
21 20 20 20 21 22 23 24 26 28 29 29 31 32 34 36 36 36 39 37 35 33 35 37 23 26 23 22 27 27 22 20 21 24 26 28 21 12 17 18 19 18 21 21 23 28 27 27 13 14 13 14 13 11
19 20 19 20 21 25 23 20 19 19 19 20 20 21 21 20 23 31 41 47 41 36 13 24 31 29 19 17 25 19 21 24 27 26 27 21 18 14 16 18 20 17 19 21 27 18 17 16 13 14 11 13 9 11
16 16 15 21 17 12 9 10 13 17 18 21 22 24 27 29 23 21 35 42 43 32 39 13 7 1 25 29 17 23 24 18 24 22 27 26 18 19 10 17 15 14 17 15 21 21 25 16 16 11 14 10 9 13
12 14 15 9 7 7 7 12 15 13 14 17 19 21 27 28 29 36 30 36 35 32 37 35 25 21 12 20 25 26 24 26 21 22 27 25 21 19 15 19 16 14 14 10 12 20 21 21 14 12 12 13 15 14
12 8 6 6 6 6 9 13 9 10 13 13 12 19 25 28 31 31 30 19 19 40 35 27 19 11 15 22 22 22 26 24 20 25 23 25 22 25 23 26 17 11 15 13 13 14 17 11 13 18 19 15 14 15
4 7 6 5 4 5 10 12 11 6 7 7 1 14 26 35 35 35 28 19 7 37 34 25 26 13 18 19 24 28 28 25 15 20 27 24 28 25 29 20 14 10 11 13 17 17 20 15 16 18 17 18 17 13
6 4 5 3 1 5 10 10 5 9 7 7 10 32 43 38 33 32 24 22 25 32 33 19 29 17 23 26 25 26 14 15 11 19 19 24 33 30 29 24 21 19 15 18 20 20 18 19 22 19 17 17 16 13
4 3 5 2 3 3 1 3 11 15 14 28 28 21 31 35 33 31 13 14 14 12 34 12 22 22 26 28 28 19 10 10 7 14 15 13 30 32 27 27 24 21 18 17 11 10 17 19 16 18 16 16 14 11
4 5 5 4 7 9 8 2 10 15 19 27 29 34 30 27 15 9 18 12 13 11 17 30 21 16 16 22 16 20 9 9 7 9 9 12 27 24 19 17 15 14 17 16 17 20 23 21 18 16 15 14 12 10
6 7 7 6 8 9 16 22 14 17 22 28 33 18 21 10 9 10 15 14 11 20 19 24 29 24 20 19 11 12 11 10 7 8 7 17 19 14 9 8 12 14 18 23 17 28 26 24 21 18 16 14 11 8
7 10 8 6 9 15 21 29 27 30 35 29 7 7 6 7 8 8 15 20 17 23 16 19 22 24 21 23 8 8 9 7 9 8 11 18 14 13 9 13 15 19 26 22 27 22 20 20 19 18 17 14 10 9
11 12 9 7 9 12 18 34 36 41 31 2 5 3 3 9 15 19 19 21 14 18 16 21 27 19 23 9 8 6 9 6 8 8 11 10 12 16 16 20 21 22 26 22 21 19 19 19 18 16 13 11 10 10
15 13 10 8 7 9 19 22 33 21 7 3 3 8 8 8 16 25 23 19 14 13 22 24 14 8 8 7 7 7 5 6 7 10 10 10 14 21 21 20 20 20 20 22 21 19 19 18 17 14 13 12 11 11
14 16 11 3 5 13 15 19 13 11 3 4 5 6 5 8 10 16 19 24 23 20 27 11 6 4 7 5 6 6 6 7 8 8 8 9 14 20 21 21 22 22 22 20 21 21 20 18 15 13 12 12 12 12
12 12 9 8 8 12 10 10 5 3 9 12 8 6 6 9 12 21 28 30 25 24 13 8 6 7 6 7 8 9 7 8 9 8 11 15 24 22 21 20 21 20 20 19 20 18 15 14 14 13 14 14 13 12
11 8 7 11 14 15 12 8 11 13 16 14 12 12 14 16 22 25 19 20 19 13 11 7 5 6 4 3 5 5 4 5 4 10 16 25 26 23 21 19 18 18 19 18 16 15 15 16 15 14 15 14 14 13
5 4 11 14 16 17 7 13 22 18 22 20 16 14 14 16 18 15 16 19 13 5 3 1 3 5 3 2 2 1 2 4 6 13 23 30 29 25 22 19 17 16 16 16 17 16 16 14 12 13 14 15 14 14
7 11 14 13 13 9 18 18 18 20 19 15 14 15 16 13 10 11 11 7 4 1 7 10 9 7 5 4 3 3 4 7 11 15 23 29 28 25 22 20 18 15 14 14 14 14 14 14 14 14 15 16 17 16
9 8 13 17 20 20 17 20 22 18 16 15 14 13 12 10 9 8 9 9 8 14 13 12 10 10 10 10 10 9 9 12 17 17 20 21 20 19 18 16 16 14 15 15 16 16 16 14 12 12 14 15 16 16
10 11 11 14 13 10 20 20 18 20 14 18 19 16 16 17 16 16 14 17 17 14 13 12 11 10 9 9 9 9 8 9 10 13 16 18 19 18 17 16 15 15 14 15 16 16 14 13 13 13 13 13 15 16
10 12 11 4 5 11 20 14 19 19 19 15 12 15 14 12 10 13 14 13 12 11 9 8 7 7 6 6 6 6 5 6 5 6 7 8 9 11 13 15 17 17 17 16 15 14 14 14 15 15 14 14 14 16
5 4 3 4 7 14 15 16 16 14 15 13 12 11 13 10 9 9 10 10 9 7 6 4 3 2 1 1 1 1 1 1 2 4 4 5 7 9 11 13 14 14 13 12 13 13 14 15 16 16 16 16 17 18
6 5 4 5 9 15 14 16 16 15 15 14 11 11 13 10 8 5 12 12 10 10 9 8 7 5 5 4 5 5 6 6 7 8 8 9 10 12 13 15 16 17 16 16 17 17 17 17 16 17 17 18 20 20
5 4 8 9 9 11 13 17 16 17 16 12 15 13 11 7 7 8 11 14 15 14 13 11 10 9 8 8 8 9 9 10 11 11 11 12 14 15 15 16 18 20 20 20 19 18 18 18 19 20 20 21 21 22
3 4 6 8 12 13 13 15 16 16 17 13 14 13 8 8 9 10 11 14 17 17 15 13 12 11 10 10 10 9 10 11 12 14 15 15 15 16 16 17 17 18 19 21 21 22 23 24 25 24 22 23 23 23
3 3 5 5 7 9 12 14 15 15 14 15 15 16 14 15 12 11 13 14 15 15 14 13 11 10 9 9 10 11 12 12 12 13 14 15 16 18 19 21 21 22 23 23 24 25 26 26 26 26 25 23 23 23
1 1 4 6 7 7 7 9 11 11 11 12 12 11 11 10 10 9 10 11 11 10 10 10 10 10 11 11 12 12 11 11 11 12 12 13 15 16 18 19 20 21 22 23 23 23 24 24 23 22 22 21 21 21
5 5 4 6 7 9 10 8 9 10 13 12 12 11 11 11 10 10 10 9 10 11 12 13 13 14 14 14 13 12 12 13 13 13 14 15 15 16 16 17 17 17 17 17 18 18 17 17 18 19 20 20 20 20
6 6 7 6 5 7 10 11 11 11 10 10 11 11 12 12 11 10 9 9 10 9 9 9 9 10 10 11 12 14 16 16 15 15 16 17 17 17 16 16 16 16 16 16 16 16 17 17 18 19 19 19 19 19
10 9 9 9 10 8 8 10 12 13 14 14 14 13 14 13 12 9 8 7 8 8 8 9 10 11 11 12 14 15 17 18 19 19 18 17 17 16 14 14 14 13 13 13 13 14 15 16 17 18 18 18 18 17